Wetterdaten: Dienstag, 10.09.2013
Datum Zeit Temp. Aussen +5cm Feuchte Auss Luftdruck Regen Sonnenschein Regendauer UV Solar Windben
10.09.2013 00:00 12,4 C 11,1 C 98 % 1010,2 hPa 0,2 l/m 0 min 2 min 0,0 UV-I 0 W/m 12,9 km/h (3 Bft)
10.09.2013 00:02 12,4 C 11,1 C 98 % 1010,0 hPa 0,0 l/m 0 min 2 min 0,0 UV-I 0 W/m 2,6 km/h (1 Bft)
10.09.2013 00:06 12,4 C 11,1 C 98 % 1010,0 hPa 0,0 l/m 0 min 2 min 0,0 UV-I 0 W/m 2,6 km/h (1 Bft)
10.09.2013 00:08 12,4 C 11,1 C 98 % 1009,9 hPa 0,2 l/m 0 min 2 min 0,0 UV-I 0 W/m 5,1 km/h (1 Bft)
10.09.2013 00:10 12,4 C 11,1 C 98 % 1009,9 hPa 0,2 l/m 0 min 2 min 0,0 UV-I 0 W/m 2,6 km/h (1 Bft)
10.09.2013 00:12 12,4 C 11,1 C 98 % 1009,8 hPa 0,4 l/m 0 min 2 min 0,0 UV-I 0 W/m 0,0 km/h (0 Bft)
10.09.2013 00:14 12,4 C 11,1 C 98 % 1009,7 hPa 0,2 l/m 0 min 2 min 0,0 UV-I 0 W/m 7,7 km/h (2 Bft)
10.09.2013 00:16 12,4 C 11,1 C 98 % 1009,6 hPa 0,2 l/m 0 min 2 min 0,0 UV-I 0 W/m 12,9 km/h (3 Bft)
10.09.2013 00:18 12,4 C 11,1 C 98 % 1009,7 hPa 0,2 l/m 0 min 2 min 0,0 UV-I 0 W/m 2,6 km/h (1 Bft)
10.09.2013 00:20 12,4 C 11,1 C 98 % 1009,7 hPa 0,0 l/m 0 min 2 min 0,0 UV-I 0 W/m 2,6 km/h (1 Bft)
10.09.2013 00:22 12,4 C 11,1 C 98 % 1009,6 hPa 0,0 l/m 0 min 2 min 0,0 UV-I 0 W/m 10,3 km/h (2 Bft)
10.09.2013 00:24 12,4 C 11,1 C 98 % 1009,6 hPa 0,0 l/m 0 min 2 min 0,0 UV-I 0 W/m 2,6 km/h (1 Bft)
10.09.2013 00:26 12,4 C 11,1 C 98 % 1009,6 hPa 0,2 l/m 0 min 2 min 0,0 UV-I 0 W/m 7,7 km/h (2 Bft)
10.09.2013 00:28 12,4 C 11,1 C 98 % 1009,5 hPa 0,0 l/m 0 min 2 min 0,0 UV-I 0 W/m 12,9 km/h (3 Bft)
10.09.2013 00:30 12,4 C 11,1 C 98 % 1009,5 hPa 0,2 l/m 0 min 2 min 0,0 UV-I 0 W/m 2,6 km/h (1 Bft)
10.09.2013 00:32 12,4 C 11,1 C 98 % 1009,5 hPa 0,0 l/m 0 min 2 min 0,0 UV-I 0 W/m 2,6 km/h (1 Bft)
10.09.2013 00:34 12,4 C 11,1 C 98 % 1009,5 hPa 0,0 l/m 0 min 2 min 0,0 UV-I 0 W/m 7,7 km/h (2 Bft)
10.09.2013 00:36 12,4 C 11,1 C 98 % 1009,5 hPa 0,2 l/m 0 min 2 min 0,0 UV-I 0 W/m 15,4 km/h (3 Bft)
10.09.2013 00:38 12,3 C 11,1 C 98 % 1009,5 hPa 0,0 l/m 0 min 2 min 0,0 UV-I 0 W/m 7,7 km/h (2 Bft)
10.09.2013 00:40 12,3 C 11,1 C 98 % 1009,5 hPa 0,0 l/m 0 min 2 min 0,0 UV-I 0 W/m 10,3 km/h (2 Bft)
10.09.2013 00:42 12,3 C 11,1 C 98 % 1009,3 hPa 0,0 l/m 0 min 2 min 0,0 UV-I 0 W/m 10,3 km/h (2 Bft)
10.09.2013 00:44 12,3 C 11,1 C 98 % 1009,4 hPa 0,0 l/m 0 min 2 min 0,0 UV-I 0 W/m 15,4 km/h (3 Bft)
10.09.2013 00:46 12,3 C 11,1 C 98 % 1009,3 hPa 0,0 l/m 0 min 2 min 0,0 UV-I 0 W/m 12,9 km/h (3 Bft)
10.09.2013 00:48 12,3 C 11,1 C 98 % 1009,3 hPa 0,0 l/m 0 min 0 min 0,0 UV-I 0 W/m 7,7 km/h (2 Bft)
10.09.2013 00:50 12,4 C 11,1 C 98 % 1009,3 hPa 0,0 l/m 0 min 0 min 0,0 UV-I 0 W/m 12,9 km/h (3 Bft)
10.09.2013 00:52 12,4 C 11,7 C 98 % 1009,2 hPa 0,0 l/m 0 min 0 min 0,0 UV-I 0 W/m 0,0 km/h (0 Bft)
10.09.2013 00:54 12,4 C 11,1 C 98 % 1009,2 hPa 0,0 l/m 0 min 0 min 0,0 UV-I 0 W/m 10,3 km/h (2 Bft)
10.09.2013 00:56 12,3 C 11,1 C 98 % 1009,0 hPa 0,0 l/m 0 min 0 min 0,0 UV-I 0 W/m 15,4 km/h (3 Bft)
10.09.2013 00:58 12,4 C 11,7 C 98 % 1009,1 hPa 0,0 l/m 0 min 0 min 0,0 UV-I 0 W/m 10,3 km/h (2 Bft)
10.09.2013 01:00 12,4 C 11,1 C 98 % 1009,1 hPa 0,0 l/m 0 min 0 min 0,0 UV-I 0 W/m 15,4 km/h (3 Bft)
10.09.2013 01:02 12,4 C 11,1 C 98 % 1009,1 hPa 0,0 l/m 0 min 2 min 0,0 UV-I 0 W/m 12,9 km/h (3 Bft)
10.09.2013 01:06 12,4 C 11,7 C 98 % 1009,0 hPa 0,0 l/m 0 min 0 min 0,0 UV-I 0 W/m 12,9 km/h (3 Bft)
10.09.2013 01:08 12,4 C 11,7 C 98 % 1008,9 hPa 0,0 l/m 0 min 0 min 0,0 UV-I 0 W/m 12,9 km/h (3 Bft)
10.09.2013 01:10 12,4 C 11,7 C 98 % 1009,0 hPa 0,0 l/m 0 min 0 min 0,0 UV-I 0 W/m 5,1 km/h (1 Bft)
10.09.2013 01:12 12,4 C 11,7 C 98 % 1009,0 hPa 0,0 l/m 0 min 0 min 0,0 UV-I 0 W/m 10,3 km/h (2 Bft)
10.09.2013 01:14 12,4 C 11,7 C 98 % 1008,9 hPa 0,0 l/m 0 min 0 min 0,0 UV-I 0 W/m 0,0 km/h (0 Bft)
10.09.2013 01:16 12,4 C 11,7 C 98 % 1008,9 hPa 0,2 l/m 0 min 0 min 0,0 UV-I 0 W/m 5,1 km/h (1 Bft)
10.09.2013 01:18 12,5 C 11,7 C 98 % 1008,8 hPa 0,0 l/m 0 min 0 min 0,0 UV-I 0 W/m 7,7 km/h (2 Bft)
10.09.2013 01:20 12,5 C 11,7 C 98 % 1008,8 hPa 0,0 l/m 0 min 0 min 0,0 UV-I 0 W/m 2,6 km/h (1 Bft)
10.09.2013 01:22 12,5 C 11,7 C 98 % 1008,8 hPa 0,0 l/m 0 min 0 min 0,0 UV-I 0 W/m 12,9 km/h (3 Bft)
10.09.2013 01:24 12,5 C 11,7 C 98 % 1008,8 hPa 0,0 l/m 0 min 0 min 0,0 UV-I 0 W/m 12,9 km/h (3 Bft)
10.09.2013 01:26 12,6 C 11,7 C 98 % 1008,7 hPa 0,0 l/m 0 min 0 min 0,0 UV-I 0 W/m 12,9 km/h (3 Bft)
10.09.2013 01:28 12,6 C 11,7 C 98 % 1008,7 hPa 0,0 l/m 0 min 0 min 0,0 UV-I 0 W/m 5,1 km/h (1 Bft)
10.09.2013 01:30 12,6 C 11,7 C 98 % 1008,6 hPa 0,0 l/m 0 min 0 min 0,0 UV-I 0 W/m 10,3 km/h (2 Bft)
10.09.2013 01:32 12,6 C 11,7 C 98 % 1008,7 hPa 0,0 l/m 0 min 0 min 0,0 UV-I 0 W/m 12,9 km/h (3 Bft)
10.09.2013 01:34 12,6 C 11,7 C 98 % 1008,6 hPa 0,0 l/m 0 min 0 min 0,0 UV-I 0 W/m 7,7 km/h (2 Bft)
10.09.2013 01:36 12,6 C 11,7 C 98 % 1008,7 hPa 0,0 l/m 0 min 0 min 0,0 UV-I 0 W/m 2,6 km/h (1 Bft)
10.09.2013 01:38 12,6 C 11,7 C 98 % 1008,6 hPa 0,0 l/m 0 min 0 min 0,0 UV-I 0 W/m 7,7 km/h (2 Bft)
10.09.2013 01:40 12,6 C 11,7 C 98 % 1008,6 hPa 0,0 l/m 0 min 0 min 0,0 UV-I 0 W/m 0,0 km/h (0 Bft)
10.09.2013 01:42 12,6 C 11,7 C 98 % 1008,6 hPa 0,0 l/m 0 min 0 min 0,0 UV-I 0 W/m 0,0 km/h (0 Bft)
10.09.2013 01:44 12,6 C 11,7 C 98 % 1008,6 hPa 0,0 l/m 0 min 0 min 0,0 UV-I 0 W/m 7,7 km/h (2 Bft)
10.09.2013 01:46 12,7 C 11,7 C 98 % 1008,7 hPa 0,0 l/m 0 min 0 min 0,0 UV-I 0 W/m 0,0 km/h (0 Bft)
10.09.2013 01:48 12,6 C 11,7 C 98 % 1008,7 hPa 0,0 l/m 0 min 0 min 0,0 UV-I 0 W/m 0,0 km/h (0 Bft)
10.09.2013 01:50 12,7 C 11,7 C 98 % 1008,7 hPa 0,0 l/m 0 min 0 min 0,0 UV-I 0 W/m 5,1 km/h (1 Bft)
10.09.2013 01:52 12,7 C 11,7 C 98 % 1008,6 hPa 0,0 l/m 0 min 0 min 0,0 UV-I 0 W/m 2,6 km/h (1 Bft)
10.09.2013 01:54 12,7 C 11,7 C 98 % 1008,6 hPa 0,0 l/m 0 min 0 min 0,0 UV-I 0 W/m 0,0 km/h (0 Bft)
10.09.2013 01:56 12,7 C 11,7 C 98 % 1008,6 hPa 0,0 l/m 0 min 0 min 0,0 UV-I 0 W/m 2,6 km/h (1 Bft)
10.09.2013 01:58 12,7 C 11,7 C 98 % 1008,6 hPa 0,0 l/m 0 min 0 min 0,0 UV-I 0 W/m 0,0 km/h (0 Bft)
10.09.2013 02:00 12,7 C 11,7 C 98 % 1008,6 hPa 0,0 l/m 0 min 0 min 0,0 UV-I 0 W/m 2,6 km/h (1 Bft)
10.09.2013 02:02 12,7 C 11,7 C 98 % 1008,7 hPa 0,0 l/m 0 min 2 min 0,0 UV-I 0 W/m 7,7 km/h (2 Bft)
10.09.2013 02:06 12,6 C 11,1 C 98 % 1008,9 hPa 0,0 l/m 0 min 2 min 0,0 UV-I 0 W/m 15,4 km/h (3 Bft)
10.09.2013 02:08 12,3 C 10,6 C 98 % 1009,0 hPa 0,0 l/m 0 min 2 min 0,0 UV-I 0 W/m 12,9 km/h (3 Bft)
10.09.2013 02:10 12,1 C 10,6 C 98 % 1009,2 hPa 0,0 l/m 0 min 2 min 0,0 UV-I 0 W/m 18,0 km/h (3 Bft)
10.09.2013 02:12 11,8 C 10,6 C 98 % 1009,1 hPa 0,0 l/m 0 min 2 min 0,0 UV-I 0 W/m 15,4 km/h (3 Bft)
10.09.2013 02:14 11,7 C 10,6 C 98 % 1009,1 hPa 0,0 l/m 0 min 2 min 0,0 UV-I 0 W/m 10,3 km/h (2 Bft)
10.09.2013 02:16 11,6 C 10,6 C 98 % 1009,2 hPa 0,0 l/m 0 min 2 min 0,0 UV-I 0 W/m 36,0 km/h (5 Bft)
10.09.2013 02:18 11,4 C 10,0 C 98 % 1009,3 hPa 0,0 l/m 0 min 2 min 0,0 UV-I 0 W/m 10,3 km/h (2 Bft)
10.09.2013 02:20 11,3 C 10,0 C 98 % 1009,2 hPa 0,2 l/m 0 min 2 min 0,0 UV-I 0 W/m 25,7 km/h (4 Bft)
10.09.2013 02:22 11,3 C 10,0 C 98 % 1009,3 hPa 0,0 l/m 0 min 2 min 0,0 UV-I 0 W/m 20,6 km/h (4 Bft)
10.09.2013 02:24 11,2 C 10,0 C 98 % 1009,4 hPa 0,0 l/m 0 min 2 min 0,0 UV-I 0 W/m 15,4 km/h (3 Bft)
10.09.2013 02:26 11,2 C 10,0 C 98 % 1009,3 hPa 0,0 l/m 0 min 2 min 0,0 UV-I 0 W/m 7,7 km/h (2 Bft)
10.09.2013 02:28 11,1 C 10,0 C 98 % 1009,3 hPa 0,0 l/m 0 min 2 min 0,0 UV-I 0 W/m 18,0 km/h (3 Bft)
10.09.2013 02:30 11,0 C 10,0 C 98 % 1009,3 hPa 0,0 l/m 0 min 2 min 0,0 UV-I 0 W/m 15,4 km/h (3 Bft)
10.09.2013 02:32 11,0 C 10,0 C 98 % 1009,4 hPa 0,0 l/m 0 min 0 min 0,0 UV-I 0 W/m 25,7 km/h (4 Bft)
10.09.2013 02:34 10,9 C 10,0 C 98 % 1009,3 hPa 0,0 l/m 0 min 2 min 0,0 UV-I 0 W/m 15,4 km/h (3 Bft)
10.09.2013 02:36 10,9 C 10,0 C 98 % 1009,3 hPa 0,0 l/m 0 min 0 min 0,0 UV-I 0 W/m 0,0 km/h (0 Bft)
10.09.2013 02:38 10,9 C 10,0 C 98 % 1009,3 hPa 0,0 l/m 0 min 0 min 0,0 UV-I 0 W/m 0,0 km/h (0 Bft)
10.09.2013 02:40 10,9 C 10,0 C 98 % 1009,4 hPa 0,0 l/m 0 min 2 min 0,0 UV-I 0 W/m 10,3 km/h (2 Bft)
10.09.2013 02:42 10,9 C 10,0 C 98 % 1009,5 hPa 0,0 l/m 0 min 2 min 0,0 UV-I 0 W/m 0,0 km/h (0 Bft)
10.09.2013 02:44 10,9 C 10,0 C 98 % 1009,5 hPa 0,0 l/m 0 min 2 min 0,0 UV-I 0 W/m 0,0 km/h (0 Bft)
10.09.2013 02:46 10,9 C 10,0 C 98 % 1009,7 hPa 0,0 l/m 0 min 2 min 0,0 UV-I 0 W/m 5,1 km/h (1 Bft)
10.09.2013 02:48 10,9 C 10,0 C 98 % 1009,8 hPa 0,0 l/m 0 min 2 min 0,0 UV-I 0 W/m 15,4 km/h (3 Bft)
10.09.2013 02:50 10,9 C 10,0 C 98 % 1010,0 hPa 0,0 l/m 0 min 2 min 0,0 UV-I 0 W/m 0,0 km/h (0 Bft)
10.09.2013 02:52 10,9 C 10,0 C 98 % 1010,1 hPa 0,0 l/m 0 min 2 min 0,0 UV-I 0 W/m 2,6 km/h (1 Bft)
10.09.2013 02:54 10,9 C 10,0 C 98 % 1009,9 hPa 0,2 l/m 0 min 2 min 0,0 UV-I 0 W/m 12,9 km/h (3 Bft)
10.09.2013 02:56 10,8 C 10,0 C 98 % 1010,1 hPa 0,0 l/m 0 min 2 min 0,0 UV-I 0 W/m 7,7 km/h (2 Bft)
10.09.2013 02:58 10,8 C 10,0 C 98 % 1010,1 hPa 0,0 l/m 0 min 2 min 0,0 UV-I 0 W/m 0,0 km/h (0 Bft)
10.09.2013 03:00 10,8 C 10,0 C 98 % 1010,1 hPa 0,0 l/m 0 min 0 min 0,0 UV-I 0 W/m 2,6 km/h (1 Bft)
10.09.2013 03:02 10,8 C 10,0 C 98 % 1010,2 hPa 0,0 l/m 0 min 0 min 0,0 UV-I 0 W/m 10,3 km/h (2 Bft)
10.09.2013 03:06 10,8 C 10,0 C 98 % 1010,2 hPa 0,0 l/m 0 min 0 min 0,0 UV-I 0 W/m 2,6 km/h (1 Bft)
10.09.2013 03:08 10,8 C 10,0 C 98 % 1010,2 hPa 0,0 l/m 0 min 0 min 0,0 UV-I 0 W/m 12,9 km/h (3 Bft)
10.09.2013 03:10 10,8 C 10,0 C 98 % 1010,3 hPa 0,0 l/m 0 min 0 min 0,0 UV-I 0 W/m 15,4 km/h (3 Bft)
10.09.2013 03:12 10,7 C 10,0 C 98 % 1010,3 hPa 0,0 l/m 0 min 0 min 0,0 UV-I 0 W/m 20,6 km/h (4 Bft)
10.09.2013 03:14 10,7 C 10,0 C 98 % 1010,4 hPa 0,0 l/m 0 min 2 min 0,0 UV-I 0 W/m 2,6 km/h (1 Bft)
10.09.2013 03:16 10,7 C 10,0 C 98 % 1010,3 hPa 0,0 l/m 0 min 2 min 0,0 UV-I 0 W/m 12,9 km/h (3 Bft)
10.09.2013 03:18 10,7 C 10,0 C 98 % 1010,4 hPa 0,0 l/m 0 min 0 min 0,0 UV-I 0 W/m 10,3 km/h (2 Bft)
10.09.2013 03:20 10,7 C 10,0 C 98 % 1010,3 hPa 0,0 l/m 0 min 0 min 0,0 UV-I 0 W/m 10,3 km/h (2 Bft)
10.09.2013 03:22 10,7 C 10,0 C 98 % 1010,4 hPa 0,0 l/m 0 min 0 min 0,0 UV-I 0 W/m 5,1 km/h (1 Bft)
10.09.2013 03:24 10,7 C 10,0 C 98 % 1010,5 hPa 0,0 l/m 0 min 0 min 0,0 UV-I 0 W/m 2,6 km/h (1 Bft)
10.09.2013 03:26 10,7 C 10,0 C 98 % 1010,6 hPa 0,0 l/m 0 min 0 min 0,0 UV-I 0 W/m 10,3 km/h (2 Bft)
10.09.2013 03:28 10,7 C 10,0 C 98 % 1010,5 hPa 0,0 l/m 0 min 0 min 0,0 UV-I 0 W/m 7,7 km/h (2 Bft)
10.09.2013 03:30 10,7 C 10,0 C 98 % 1010,5 hPa 0,0 l/m 0 min 0 min 0,0 UV-I 0 W/m 0,0 km/h (0 Bft)
10.09.2013 03:32 10,7 C 10,0 C 98 % 1010,6 hPa 0,0 l/m 0 min 0 min 0,0 UV-I 0 W/m 10,3 km/h (2 Bft)
10.09.2013 03:34 10,7 C 10,0 C 98 % 1010,6 hPa 0,0 l/m 0 min 0 min 0,0 UV-I 0 W/m 10,3 km/h (2 Bft)
10.09.2013 03:36 10,7 C 10,0 C 98 % 1010,7 hPa 0,0 l/m 0 min 0 min 0,0 UV-I 0 W/m 7,7 km/h (2 Bft)
10.09.2013 03:38 10,7 C 9,4 C 98 % 1010,8 hPa 0,0 l/m 0 min 0 min 0,0 UV-I 0 W/m 2,6 km/h (1 Bft)
10.09.2013 03:40 10,7 C 10,0 C 98 % 1010,9 hPa 0,0 l/m 0 min 0 min 0,0 UV-I 0 W/m 7,7 km/h (2 Bft)
10.09.2013 03:42 10,7 C 10,0 C 98 % 1010,9 hPa 0,0 l/m 0 min 0 min 0,0 UV-I 0 W/m 12,9 km/h (3 Bft)
10.09.2013 03:44 10,7 C 10,0 C 98 % 1011,0 hPa 0,0 l/m 0 min 0 min 0,0 UV-I 0 W/m 7,7 km/h (2 Bft)
10.09.2013 03:46 10,7 C 10,0 C 98 % 1011,0 hPa 0,0 l/m 0 min 0 min 0,0 UV-I 0 W/m 15,4 km/h (3 Bft)
10.09.2013 03:48 10,6 C 10,0 C 98 % 1011,1 hPa 0,0 l/m 0 min 0 min 0,0 UV-I 0 W/m 15,4 km/h (3 Bft)
10.09.2013 03:50 10,6 C 10,0 C 98 % 1011,0 hPa 0,0 l/m 0 min 0 min 0,0 UV-I 0 W/m 10,3 km/h (2 Bft)
10.09.2013 03:52 10,6 C 9,4 C 98 % 1011,0 hPa 0,0 l/m 0 min 0 min 0,0 UV-I 0 W/m 5,1 km/h (1 Bft)
10.09.2013 03:54 10,5 C 9,4 C 98 % 1011,0 hPa 0,0 l/m 0 min 0 min 0,0 UV-I 0 W/m 2,6 km/h (1 Bft)
10.09.2013 03:56 10,5 C 9,4 C 98 % 1011,0 hPa 0,0 l/m 0 min 0 min 0,0 UV-I 0 W/m 10,3 km/h (2 Bft)
10.09.2013 03:58 10,4 C 9,4 C 98 % 1011,0 hPa 0,0 l/m 0 min 0 min 0,0 UV-I 0 W/m 20,6 km/h (4 Bft)
10.09.2013 04:00 10,4 C 9,4 C 98 % 1011,1 hPa 0,0 l/m 0 min 0 min 0,0 UV-I 0 W/m 5,1 km/h (1 Bft)
10.09.2013 04:02 10,4 C 9,4 C 98 % 1011,1 hPa 0,0 l/m 0 min 0 min 0,0 UV-I 0 W/m 7,7 km/h (2 Bft)
10.09.2013 04:06 10,3 C 9,4 C 98 % 1011,1 hPa 0,0 l/m 0 min 0 min 0,0 UV-I 0 W/m 5,1 km/h (1 Bft)
10.09.2013 04:08 10,3 C 9,4 C 98 % 1011,1 hPa 0,0 l/m 0 min 0 min 0,0 UV-I 0 W/m 12,9 km/h (3 Bft)
10.09.2013 04:10 10,2 C 9,4 C 98 % 1011,1 hPa 0,0 l/m 0 min 0 min 0,0 UV-I 0 W/m 7,7 km/h (2 Bft)
10.09.2013 04:12 10,2 C 9,4 C 98 % 1011,1 hPa 0,0 l/m 0 min 0 min 0,0 UV-I 0 W/m 5,1 km/h (1 Bft)
10.09.2013 04:14 10,2 C 9,4 C 98 % 1011,1 hPa 0,0 l/m 0 min 0 min 0,0 UV-I 0 W/m 0,0 km/h (0 Bft)
10.09.2013 04:16 10,2 C 9,4 C 98 % 1011,0 hPa 0,0 l/m 0 min 0 min 0,0 UV-I 0 W/m 10,3 km/h (2 Bft)
10.09.2013 04:18 10,2 C 9,4 C 98 % 1011,1 hPa 0,0 l/m 0 min 0 min 0,0 UV-I 0 W/m 5,1 km/h (1 Bft)
10.09.2013 04:20 10,2 C 9,4 C 98 % 1011,2 hPa 0,0 l/m 0 min 0 min 0,0 UV-I 0 W/m 12,9 km/h (3 Bft)
10.09.2013 04:22 10,2 C 9,4 C 98 % 1011,2 hPa 0,0 l/m 0 min 0 min 0,0 UV-I 0 W/m 15,4 km/h (3 Bft)
10.09.2013 04:24 10,2 C 9,4 C 98 % 1011,3 hPa 0,0 l/m 0 min 0 min 0,0 UV-I 0 W/m 0,0 km/h (0 Bft)
10.09.2013 04:26 10,2 C 9,4 C 98 % 1011,3 hPa 0,0 l/m 0 min 0 min 0,0 UV-I 0 W/m 15,4 km/h (3 Bft)
10.09.2013 04:28 10,2 C 9,4 C 98 % 1011,3 hPa 0,0 l/m 0 min 0 min 0,0 UV-I 0 W/m 0,0 km/h (0 Bft)
10.09.2013 04:30 10,2 C 8,9 C 98 % 1011,3 hPa 0,0 l/m 0 min 0 min 0,0 UV-I 0 W/m 10,3 km/h (2 Bft)
10.09.2013 04:32 10,2 C 8,9 C 98 % 1011,5 hPa 0,0 l/m 0 min 0 min 0,0 UV-I 0 W/m 10,3 km/h (2 Bft)
10.09.2013 04:34 10,1 C 8,9 C 98 % 1011,5 hPa 0,0 l/m 0 min 0 min 0,0 UV-I 0 W/m 15,4 km/h (3 Bft)
10.09.2013 04:36 10,1 C 8,9 C 98 % 1011,5 hPa 0,0 l/m 0 min 0 min 0,0 UV-I 0 W/m 7,7 km/h (2 Bft)
10.09.2013 04:38 10,1 C 8,9 C 98 % 1011,4 hPa 0,0 l/m 0 min 0 min 0,0 UV-I 0 W/m 0,0 km/h (0 Bft)
10.09.2013 04:40 10,1 C 8,9 C 97 % 1011,5 hPa 0,0 l/m 0 min 0 min 0,0 UV-I 0 W/m 12,9 km/h (3 Bft)
10.09.2013 04:42 10,1 C 8,9 C 97 % 1011,5 hPa 0,0 l/m 0 min 0 min 0,0 UV-I 0 W/m 2,6 km/h (1 Bft)
10.09.2013 04:44 10,1 C 8,9 C 97 % 1011,4 hPa 0,0 l/m 0 min 0 min 0,0 UV-I 0 W/m 0,0 km/h (0 Bft)
10.09.2013 04:46 10,1 C 8,9 C 97 % 1011,5 hPa 0,0 l/m 0 min 0 min 0,0 UV-I 0 W/m 5,1 km/h (1 Bft)
10.09.2013 04:48 10,1 C 8,9 C 97 % 1011,5 hPa 0,0 l/m 0 min 0 min 0,0 UV-I 0 W/m 5,1 km/h (1 Bft)
10.09.2013 04:50 10,0 C 8,9 C 97 % 1011,6 hPa 0,0 l/m 0 min 0 min 0,0 UV-I 0 W/m 5,1 km/h (1 Bft)
10.09.2013 04:52 10,0 C 8,9 C 97 % 1011,6 hPa 0,0 l/m 0 min 0 min 0,0 UV-I 0 W/m 5,1 km/h (1 Bft)
10.09.2013 04:54 10,0 C 8,9 C 97 % 1011,6 hPa 0,0 l/m 0 min 0 min 0,0 UV-I 0 W/m 15,4 km/h (3 Bft)
10.09.2013 04:56 10,0 C 8,9 C 97 % 1011,6 hPa 0,0 l/m 0 min 0 min 0,0 UV-I 0 W/m 7,7 km/h (2 Bft)
10.09.2013 04:58 9,9 C 8,9 C 97 % 1011,6 hPa 0,0 l/m 0 min 0 min 0,0 UV-I 0 W/m 12,9 km/h (3 Bft)
10.09.2013 05:00 9,9 C 8,9 C 97 % 1011,6 hPa 0,0 l/m 0 min 0 min 0,0 UV-I 0 W/m 10,3 km/h (2 Bft)
10.09.2013 05:02 9,9 C 8,9 C 97 % 1011,6 hPa 0,0 l/m 0 min 0 min 0,0 UV-I 0 W/m 2,6 km/h (1 Bft)
10.09.2013 05:06 9,9 C 8,9 C 97 % 1011,7 hPa 0,0 l/m 0 min 0 min 0,0 UV-I 0 W/m 18,0 km/h (3 Bft)
10.09.2013 05:08 9,9 C 8,9 C 97 % 1011,6 hPa 0,0 l/m 0 min 0 min 0,0 UV-I 0 W/m 0,0 km/h (0 Bft)
10.09.2013 05:10 10,0 C 8,9 C 97 % 1011,6 hPa 0,0 l/m 0 min 0 min 0,0 UV-I 0 W/m 7,7 km/h (2 Bft)
10.09.2013 05:12 10,0 C 8,9 C 97 % 1011,7 hPa 0,0 l/m 0 min 0 min 0,0 UV-I 0 W/m 2,6 km/h (1 Bft)
10.09.2013 05:14 10,0 C 8,9 C 97 % 1011,7 hPa 0,0 l/m 0 min 0 min 0,0 UV-I 0 W/m 7,7 km/h (2 Bft)
10.09.2013 05:16 10,0 C 8,9 C 97 % 1011,6 hPa 0,0 l/m 0 min 0 min 0,0 UV-I 0 W/m 15,4 km/h (3 Bft)
10.09.2013 05:18 10,0 C 8,9 C 97 % 1011,6 hPa 0,0 l/m 0 min 0 min 0,0 UV-I 0 W/m 10,3 km/h (2 Bft)
10.09.2013 05:20 10,0 C 8,9 C 97 % 1011,6 hPa 0,0 l/m 0 min 0 min 0,0 UV-I 0 W/m 2,6 km/h (1 Bft)
10.09.2013 05:22 10,1 C 8,9 C 97 % 1011,7 hPa 0,0 l/m 0 min 0 min 0,0 UV-I 0 W/m 12,9 km/h (3 Bft)
10.09.2013 05:24 10,1 C 8,9 C 97 % 1011,6 hPa 0,0 l/m 0 min 0 min 0,0 UV-I 0 W/m 15,4 km/h (3 Bft)
10.09.2013 05:26 10,1 C 8,9 C 97 % 1011,7 hPa 0,0 l/m 0 min 0 min 0,0 UV-I 0 W/m 12,9 km/h (3 Bft)
10.09.2013 05:28 10,1 C 8,9 C 97 % 1011,6 hPa 0,0 l/m 0 min 0 min 0,0 UV-I 0 W/m 7,7 km/h (2 Bft)
10.09.2013 05:30 10,1 C 9,4 C 97 % 1011,6 hPa 0,0 l/m 0 min 0 min 0,0 UV-I 0 W/m 15,4 km/h (3 Bft)
10.09.2013 05:32 10,1 C 8,9 C 97 % 1011,6 hPa 0,0 l/m 0 min 0 min 0,0 UV-I 0 W/m 0,0 km/h (0 Bft)
10.09.2013 05:34 10,2 C 9,4 C 97 % 1011,8 hPa 0,0 l/m 0 min 0 min 0,0 UV-I 0 W/m 10,3 km/h (2 Bft)
10.09.2013 05:36 10,2 C 9,4 C 97 % 1011,6 hPa 0,0 l/m 0 min 0 min 0,0 UV-I 0 W/m 10,3 km/h (2 Bft)
10.09.2013 05:38 10,2 C 9,4 C 97 % 1011,7 hPa 0,0 l/m 0 min 0 min 0,0 UV-I 0 W/m 7,7 km/h (2 Bft)
10.09.2013 05:40 10,2 C 9,4 C 97 % 1011,6 hPa 0,0 l/m 0 min 0 min 0,0 UV-I 0 W/m 2,6 km/h (1 Bft)
10.09.2013 05:42 10,2 C 9,4 C 97 % 1011,7 hPa 0,0 l/m 0 min 0 min 0,0 UV-I 0 W/m 2,6 km/h (1 Bft)
10.09.2013 05:44 10,2 C 9,4 C 97 % 1011,6 hPa 0,0 l/m 0 min 0 min 0,0 UV-I 0 W/m 10,3 km/h (2 Bft)
10.09.2013 05:46 10,2 C 9,4 C 97 % 1011,6 hPa 0,0 l/m 0 min 0 min 0,0 UV-I 0 W/m 12,9 km/h (3 Bft)
10.09.2013 05:48 10,2 C 9,4 C 97 % 1011,7 hPa 0,0 l/m 0 min 0 min 0,0 UV-I 0 W/m 7,7 km/h (2 Bft)
10.09.2013 05:50 10,3 C 9,4 C 97 % 1011,6 hPa 0,0 l/m 0 min 0 min 0,0 UV-I 0 W/m 15,4 km/h (3 Bft)
10.09.2013 05:52 10,3 C 9,4 C 97 % 1011,7 hPa 0,0 l/m 0 min 0 min 0,0 UV-I 0 W/m 7,7 km/h (2 Bft)
10.09.2013 05:54 10,3 C 9,4 C 97 % 1011,8 hPa 0,0 l/m 0 min 0 min 0,0 UV-I 0 W/m 0,0 km/h (0 Bft)
10.09.2013 05:56 10,3 C 9,4 C 97 % 1011,8 hPa 0,0 l/m 0 min 0 min 0,0 UV-I 0 W/m 7,7 km/h (2 Bft)
10.09.2013 05:58 10,3 C 9,4 C 97 % 1011,7 hPa 0,0 l/m 0 min 0 min 0,0 UV-I 0 W/m 15,4 km/h (3 Bft)
10.09.2013 06:00 10,3 C 9,4 C 97 % 1011,7 hPa 0,0 l/m 0 min 0 min 0,0 UV-I 0 W/m 12,9 km/h (3 Bft)
10.09.2013 06:02 10,3 C 9,4 C 97 % 1011,7 hPa 0,0 l/m 0 min 0 min 0,0 UV-I 0 W/m 12,9 km/h (3 Bft)
10.09.2013 06:06 10,3 C 9,4 C 97 % 1011,7 hPa 0,0 l/m 0 min 0 min 0,0 UV-I 0 W/m 10,3 km/h (2 Bft)
10.09.2013 06:08 10,3 C 9,4 C 97 % 1011,6 hPa 0,0 l/m 0 min 0 min 0,0 UV-I 0 W/m 15,4 km/h (3 Bft)
10.09.2013 06:10 10,3 C 9,4 C 97 % 1011,7 hPa 0,0 l/m 0 min 0 min 0,0 UV-I 0 W/m 0,0 km/h (0 Bft)
10.09.2013 06:12 10,3 C 9,4 C 97 % 1011,6 hPa 0,0 l/m 0 min 0 min 0,0 UV-I 0 W/m 10,3 km/h (2 Bft)
10.09.2013 06:14 10,3 C 9,4 C 97 % 1011,6 hPa 0,0 l/m 0 min 0 min 0,0 UV-I 0 W/m 2,6 km/h (1 Bft)
10.09.2013 06:16 10,3 C 9,4 C 97 % 1011,6 hPa 0,0 l/m 0 min 0 min 0,0 UV-I 0 W/m 18,0 km/h (3 Bft)
10.09.2013 06:18 10,3 C 9,4 C 97 % 1011,7 hPa 0,0 l/m 0 min 0 min 0,0 UV-I 0 W/m 0,0 km/h (0 Bft)
10.09.2013 06:20 10,3 C 9,4 C 97 % 1011,7 hPa 0,0 l/m 0 min 0 min 0,0 UV-I 0 W/m 7,7 km/h (2 Bft)
10.09.2013 06:22 10,3 C 9,4 C 97 % 1011,8 hPa 0,0 l/m 0 min 0 min 0,0 UV-I 0 W/m 0,0 km/h (0 Bft)
10.09.2013 06:24 10,3 C 9,4 C 97 % 1011,7 hPa 0,0 l/m 0 min 0 min 0,0 UV-I 0 W/m 10,3 km/h (2 Bft)
10.09.2013 06:26 10,3 C 9,4 C 97 % 1011,7 hPa 0,0 l/m 0 min 0 min 0,0 UV-I 0 W/m 15,4 km/h (3 Bft)
10.09.2013 06:28 10,3 C 9,4 C 97 % 1011,6 hPa 0,0 l/m 0 min 0 min 0,0 UV-I 0 W/m 2,6 km/h (1 Bft)
10.09.2013 06:30 10,3 C 9,4 C 97 % 1011,6 hPa 0,0 l/m 0 min 0 min 0,0 UV-I 0 W/m 10,3 km/h (2 Bft)
10.09.2013 06:32 10,3 C 9,4 C 97 % 1011,7 hPa 0,0 l/m 0 min 0 min 0,0 UV-I 0 W/m 10,3 km/h (2 Bft)
10.09.2013 06:34 10,3 C 9,4 C 97 % 1011,6 hPa 0,0 l/m 0 min 0 min 0,0 UV-I 0 W/m 10,3 km/h (2 Bft)
10.09.2013 06:36 10,3 C 9,4 C 97 % 1011,6 hPa 0,0 l/m 0 min 0 min 0,0 UV-I 0 W/m 15,4 km/h (3 Bft)
10.09.2013 06:38 10,3 C 9,4 C 97 % 1011,6 hPa 0,0 l/m 0 min 0 min 0,0 UV-I 0 W/m 7,7 km/h (2 Bft)
10.09.2013 06:40 10,4 C 9,4 C 97 % 1011,7 hPa 0,0 l/m 0 min 0 min 0,0 UV-I 0 W/m 12,9 km/h (3 Bft)
10.09.2013 06:42 10,4 C 9,4 C 97 % 1011,7 hPa 0,0 l/m 0 min 0 min 0,0 UV-I 0 W/m 2,6 km/h (1 Bft)
10.09.2013 06:44 10,4 C 9,4 C 97 % 1011,6 hPa 0,0 l/m 0 min 0 min 0,0 UV-I 0 W/m 0,0 km/h (0 Bft)
10.09.2013 06:46 10,4 C 9,4 C 97 % 1011,5 hPa 0,0 l/m 0 min 0 min 0,0 UV-I 0 W/m 0,0 km/h (0 Bft)
10.09.2013 06:48 10,4 C 9,4 C 97 % 1011,6 hPa 0,0 l/m 0 min 0 min 0,0 UV-I 0 W/m 2,6 km/h (1 Bft)
10.09.2013 06:50 10,4 C 9,4 C 97 % 1011,6 hPa 0,0 l/m 0 min 0 min 0,0 UV-I 0 W/m 0,0 km/h (0 Bft)
10.09.2013 06:52 10,4 C 9,4 C 97 % 1011,5 hPa 0,0 l/m 0 min 0 min 0,0 UV-I 0 W/m 0,0 km/h (0 Bft)
10.09.2013 06:54 10,4 C 9,4 C 97 % 1011,6 hPa 0,0 l/m 0 min 0 min 0,0 UV-I 0 W/m 5,1 km/h (1 Bft)
10.09.2013 06:56 10,4 C 9,4 C 97 % 1011,6 hPa 0,0 l/m 0 min 0 min 0,0 UV-I 0 W/m 7,7 km/h (2 Bft)
10.09.2013 06:58 10,4 C 9,4 C 97 % 1011,6 hPa 0,0 l/m 0 min 0 min 0,0 UV-I 0 W/m 5,1 km/h (1 Bft)
10.09.2013 07:00 10,4 C 9,4 C 97 % 1011,6 hPa 0,0 l/m 0 min 0 min 0,0 UV-I 0 W/m 10,3 km/h (2 Bft)
10.09.2013 07:02 10,4 C 9,4 C 97 % 1011,6 hPa 0,0 l/m 0 min 0 min 0,0 UV-I 0 W/m 15,4 km/h (3 Bft)
10.09.2013 07:06 10,4 C 9,4 C 97 % 1011,6 hPa 0,0 l/m 0 min 0 min 0,0 UV-I 0 W/m 7,7 km/h (2 Bft)
10.09.2013 07:08 10,4 C 9,4 C 97 % 1011,5 hPa 0,0 l/m 0 min 0 min 0,0 UV-I 5 W/m 2,6 km/h (1 Bft)
10.09.2013 07:10 10,4 C 9,4 C 97 % 1011,6 hPa 0,0 l/m 0 min 0 min 0,0 UV-I 0 W/m 5,1 km/h (1 Bft)
10.09.2013 07:12 10,4 C 9,4 C 97 % 1011,6 hPa 0,0 l/m 0 min 0 min 0,0 UV-I 0 W/m 2,6 km/h (1 Bft)
10.09.2013 07:14 10,5 C 9,4 C 97 % 1011,8 hPa 0,0 l/m 0 min 0 min 0,0 UV-I 0 W/m 5,1 km/h (1 Bft)
10.09.2013 07:16 10,5 C 9,4 C 97 % 1011,7 hPa 0,0 l/m 0 min 0 min 0,0 UV-I 0 W/m 2,6 km/h (1 Bft)
10.09.2013 07:18 10,5 C 9,4 C 97 % 1011,8 hPa 0,0 l/m 0 min 0 min 0,0 UV-I 0 W/m 12,9 km/h (3 Bft)
10.09.2013 07:20 10,5 C 9,4 C 97 % 1011,7 hPa 0,0 l/m 0 min 0 min 0,0 UV-I 0 W/m 7,7 km/h (2 Bft)
10.09.2013 07:22 10,5 C 9,4 C 97 % 1011,8 hPa 0,0 l/m 0 min 0 min 0,0 UV-I 5 W/m 7,7 km/h (2 Bft)
10.09.2013 07:24 10,6 C 9,4 C 97 % 1011,8 hPa 0,0 l/m 0 min 0 min 0,0 UV-I 5 W/m 0,0 km/h (0 Bft)
10.09.2013 07:26 10,6 C 9,4 C 97 % 1011,8 hPa 0,0 l/m 0 min 0 min 0,0 UV-I 11 W/m 7,7 km/h (2 Bft)
10.09.2013 07:28 10,6 C 9,4 C 97 % 1011,8 hPa 0,0 l/m 0 min 0 min 0,0 UV-I 11 W/m 0,0 km/h (0 Bft)
10.09.2013 07:30 10,6 C 9,4 C 97 % 1011,8 hPa 0,0 l/m 0 min 0 min 0,0 UV-I 9 W/m 2,6 km/h (1 Bft)
10.09.2013 07:32 10,6 C 9,4 C 97 % 1011,9 hPa 0,0 l/m 0 min 0 min 0,0 UV-I 9 W/m 10,3 km/h (2 Bft)
10.09.2013 07:34 10,6 C 9,4 C 97 % 1012,0 hPa 0,0 l/m 0 min 0 min 0,0 UV-I 11 W/m 5,1 km/h (1 Bft)
10.09.2013 07:36 10,6 C 9,4 C 97 % 1012,0 hPa 0,0 l/m 0 min 0 min 0,0 UV-I 9 W/m 5,1 km/h (1 Bft)
10.09.2013 07:38 10,6 C 9,4 C 97 % 1012,0 hPa 0,0 l/m 0 min 0 min 0,0 UV-I 11 W/m 2,6 km/h (1 Bft)
10.09.2013 07:40 10,6 C 9,4 C 97 % 1012,0 hPa 0,0 l/m 0 min 0 min 0,0 UV-I 12 W/m 2,6 km/h (1 Bft)
10.09.2013 07:42 10,6 C 9,4 C 97 % 1012,1 hPa 0,0 l/m 0 min 0 min 0,0 UV-I 18 W/m 5,1 km/h (1 Bft)
10.09.2013 07:44 10,6 C 9,4 C 97 % 1012,1 hPa 0,0 l/m 0 min 0 min 0,0 UV-I 30 W/m 10,3 km/h (2 Bft)
10.09.2013 07:46 10,6 C 9,4 C 97 % 1012,2 hPa 0,0 l/m 0 min 0 min 0,0 UV-I 28 W/m 18,0 km/h (3 Bft)
10.09.2013 07:48 10,6 C 9,4 C 97 % 1012,3 hPa 0,0 l/m 0 min 0 min 0,0 UV-I 25 W/m 2,6 km/h (1 Bft)
10.09.2013 07:50 10,7 C 9,4 C 97 % 1012,2 hPa 0,0 l/m 0 min 0 min 0,0 UV-I 33 W/m 7,7 km/h (2 Bft)
10.09.2013 07:52 10,7 C 10,0 C 97 % 1012,3 hPa 0,0 l/m 0 min 0 min 0,0 UV-I 32 W/m 5,1 km/h (1 Bft)
10.09.2013 07:54 10,7 C 10,0 C 97 % 1012,3 hPa 0,0 l/m 0 min 0 min 0,0 UV-I 26 W/m 2,6 km/h (1 Bft)
10.09.2013 07:56 10,7 C 10,0 C 97 % 1012,5 hPa 0,0 l/m 0 min 0 min 0,0 UV-I 19 W/m 7,7 km/h (2 Bft)
10.09.2013 07:58 10,7 C 10,0 C 97 % 1012,4 hPa 0,0 l/m 0 min 0 min 0,0 UV-I 25 W/m 7,7 km/h (2 Bft)
10.09.2013 08:00 10,8 C 10,0 C 97 % 1012,5 hPa 0,0 l/m 0 min 0 min 0,0 UV-I 23 W/m 12,9 km/h (3 Bft)
10.09.2013 08:02 10,7 C 10,0 C 97 % 1012,6 hPa 0,0 l/m 0 min 0 min 0,0 UV-I 25 W/m 2,6 km/h (1 Bft)
10.09.2013 08:06 10,7 C 10,0 C 97 % 1012,5 hPa 0,0 l/m 0 min 0 min 0,0 UV-I 21 W/m 12,9 km/h (3 Bft)
10.09.2013 08:08 10,7 C 10,0 C 96 % 1012,6 hPa 0,0 l/m 0 min 0 min 0,0 UV-I 23 W/m 5,1 km/h (1 Bft)
10.09.2013 08:10 10,7 C 10,0 C 96 % 1012,5 hPa 0,0 l/m 0 min 0 min 0,0 UV-I 28 W/m 12,9 km/h (3 Bft)
10.09.2013 08:12 10,7 C 10,0 C 96 % 1012,6 hPa 0,0 l/m 0 min 0 min 0,0 UV-I 25 W/m 10,3 km/h (2 Bft)
10.09.2013 08:14 10,7 C 10,0 C 96 % 1012,5 hPa 0,0 l/m 0 min 0 min 0,0 UV-I 18 W/m 7,7 km/h (2 Bft)
10.09.2013 08:16 10,7 C 10,0 C 96 % 1012,6 hPa 0,0 l/m 0 min 0 min 0,0 UV-I 18 W/m 7,7 km/h (2 Bft)
10.09.2013 08:18 10,7 C 10,0 C 96 % 1012,6 hPa 0,0 l/m 0 min 0 min 0,0 UV-I 18 W/m 12,9 km/h (3 Bft)
10.09.2013 08:20 10,7 C 10,0 C 96 % 1012,6 hPa 0,0 l/m 0 min 0 min 0,0 UV-I 21 W/m 12,9 km/h (3 Bft)
10.09.2013 08:22 10,7 C 10,0 C 96 % 1012,6 hPa 0,0 l/m 0 min 0 min 0,0 UV-I 26 W/m 0,0 km/h (0 Bft)
10.09.2013 08:24 10,7 C 10,0 C 96 % 1012,7 hPa 0,0 l/m 0 min 0 min 0,0 UV-I 21 W/m 10,3 km/h (2 Bft)
10.09.2013 08:26 10,8 C 10,0 C 96 % 1012,6 hPa 0,0 l/m 0 min 0 min 0,0 UV-I 19 W/m 0,0 km/h (0 Bft)
10.09.2013 08:28 10,7 C 10,0 C 96 % 1012,7 hPa 0,0 l/m 0 min 0 min 0,0 UV-I 18 W/m 15,4 km/h (3 Bft)
10.09.2013 08:30 10,7 C 10,0 C 96 % 1012,7 hPa 0,0 l/m 0 min 0 min 0,0 UV-I 26 W/m 12,9 km/h (3 Bft)
10.09.2013 08:32 10,7 C 10,0 C 96 % 1012,7 hPa 0,0 l/m 0 min 0 min 0,0 UV-I 35 W/m 0,0 km/h (0 Bft)
10.09.2013 08:34 10,8 C 10,0 C 96 % 1012,6 hPa 0,0 l/m 0 min 0 min 0,0 UV-I 30 W/m 7,7 km/h (2 Bft)
10.09.2013 08:36 10,8 C 10,0 C 96 % 1012,7 hPa 0,0 l/m 0 min 0 min 0,0 UV-I 40 W/m 0,0 km/h (0 Bft)
10.09.2013 08:38 10,8 C 10,0 C 96 % 1012,6 hPa 0,0 l/m 0 min 0 min 0,0 UV-I 35 W/m 2,6 km/h (1 Bft)
10.09.2013 08:40 10,8 C 10,0 C 96 % 1012,6 hPa 0,0 l/m 0 min 0 min 0,0 UV-I 35 W/m 5,1 km/h (1 Bft)
10.09.2013 08:42 10,8 C 10,0 C 96 % 1012,6 hPa 0,0 l/m 0 min 0 min 0,0 UV-I 39 W/m 15,4 km/h (3 Bft)
10.09.2013 08:44 10,8 C 10,0 C 96 % 1012,6 hPa 0,0 l/m 0 min 0 min 0,0 UV-I 40 W/m 7,7 km/h (2 Bft)
10.09.2013 08:46 10,8 C 10,0 C 96 % 1012,6 hPa 0,0 l/m 0 min 0 min 0,0 UV-I 49 W/m 7,7 km/h (2 Bft)
10.09.2013 08:48 10,8 C 10,0 C 96 % 1012,6 hPa 0,0 l/m 0 min 0 min 0,0 UV-I 47 W/m 2,6 km/h (1 Bft)
10.09.2013 08:50 10,8 C 10,0 C 96 % 1012,5 hPa 0,0 l/m 0 min 0 min 0,0 UV-I 56 W/m 12,9 km/h (3 Bft)
10.09.2013 08:52 10,8 C 10,0 C 96 % 1012,6 hPa 0,0 l/m 0 min 0 min 0,0 UV-I 58 W/m 10,3 km/h (2 Bft)
10.09.2013 08:54 10,8 C 10,0 C 96 % 1012,6 hPa 0,0 l/m 0 min 0 min 0,0 UV-I 81 W/m 2,6 km/h (1 Bft)
10.09.2013 08:56 10,9 C 10,0 C 96 % 1012,6 hPa 0,0 l/m 0 min 0 min 0,0 UV-I 69 W/m 7,7 km/h (2 Bft)
10.09.2013 08:58 10,9 C 10,0 C 96 % 1012,6 hPa 0,0 l/m 0 min 0 min 0,0 UV-I 86 W/m 15,4 km/h (3 Bft)
10.09.2013 09:00 10,9 C 10,6 C 96 % 1012,6 hPa 0,0 l/m 0 min 0 min 0,0 UV-I 127 W/m 15,4 km/h (3 Bft)
10.09.2013 09:02 10,9 C 10,6 C 96 % 1012,6 hPa 0,0 l/m 0 min 0 min 0,0 UV-I 113 W/m 15,4 km/h (3 Bft)
10.09.2013 09:06 10,9 C 10,6 C 96 % 1012,6 hPa 0,0 l/m 0 min 0 min 0,0 UV-I 77 W/m 10,3 km/h (2 Bft)
10.09.2013 09:08 11,0 C 10,6 C 96 % 1012,7 hPa 0,0 l/m 0 min 0 min 0,0 UV-I 79 W/m 7,7 km/h (2 Bft)
10.09.2013 09:10 11,0 C 10,6 C 96 % 1012,7 hPa 0,0 l/m 0 min 0 min 0,0 UV-I 111 W/m 7,7 km/h (2 Bft)
10.09.2013 09:12 11,0 C 10,6 C 95 % 1012,7 hPa 0,0 l/m 0 min 0 min 0,0 UV-I 84 W/m 18,0 km/h (3 Bft)
10.09.2013 09:14 11,0 C 10,6 C 95 % 1012,6 hPa 0,0 l/m 0 min 0 min 0,0 UV-I 86 W/m 18,0 km/h (3 Bft)
10.09.2013 09:16 10,9 C 10,6 C 95 % 1012,7 hPa 0,0 l/m 0 min 0 min 0,0 UV-I 84 W/m 15,4 km/h (3 Bft)
10.09.2013 09:18 10,9 C 10,6 C 95 % 1012,6 hPa 0,0 l/m 0 min 0 min 0,0 UV-I 113 W/m 10,3 km/h (2 Bft)
10.09.2013 09:20 10,9 C 10,6 C 95 % 1012,7 hPa 0,0 l/m 0 min 0 min 0,0 UV-I 100 W/m 12,9 km/h (3 Bft)
10.09.2013 09:22 10,9 C 10,6 C 95 % 1012,6 hPa 0,0 l/m 0 min 0 min 0,0 UV-I 123 W/m 12,9 km/h (3 Bft)
10.09.2013 09:24 11,0 C 10,6 C 95 % 1012,6 hPa 0,0 l/m 0 min 0 min 0,0 UV-I 118 W/m 2,6 km/h (1 Bft)
10.09.2013 09:26 11,1 C 10,6 C 95 % 1012,6 hPa 0,0 l/m 0 min 0 min 0,0 UV-I 137 W/m 10,3 km/h (2 Bft)
10.09.2013 09:28 11,1 C 10,6 C 95 % 1012,8 hPa 0,0 l/m 0 min 0 min 0,0 UV-I 156 W/m 7,7 km/h (2 Bft)
10.09.2013 09:30 11,1 C 10,6 C 95 % 1012,7 hPa 0,0 l/m 0 min 0 min 0,0 UV-I 153 W/m 18,0 km/h (3 Bft)
10.09.2013 09:32 11,2 C 10,6 C 95 % 1012,7 hPa 0,0 l/m 0 min 0 min 0,0 UV-I 144 W/m 10,3 km/h (2 Bft)
10.09.2013 09:34 11,2 C 10,6 C 95 % 1012,8 hPa 0,0 l/m 0 min 0 min 0,0 UV-I 139 W/m 12,9 km/h (3 Bft)
10.09.2013 09:36 11,2 C 10,6 C 94 % 1012,8 hPa 0,0 l/m 0 min 0 min 0,0 UV-I 165 W/m 7,7 km/h (2 Bft)
10.09.2013 09:38 11,3 C 11,1 C 94 % 1012,8 hPa 0,0 l/m 2 min 0 min 0,0 UV-I 258 W/m 2,6 km/h (1 Bft)
10.09.2013 09:40 11,4 C 11,1 C 94 % 1012,8 hPa 0,0 l/m 0 min 0 min 0,0 UV-I 214 W/m 7,7 km/h (2 Bft)
10.09.2013 09:42 11,4 C 11,1 C 94 % 1012,9 hPa 0,0 l/m 2 min 0 min 0,0 UV-I 229 W/m 10,3 km/h (2 Bft)
10.09.2013 09:44 11,6 C 11,1 C 94 % 1012,7 hPa 0,0 l/m 0 min 0 min 0,0 UV-I 202 W/m 0,0 km/h (0 Bft)
10.09.2013 09:46 11,6 C 11,1 C 94 % 1012,7 hPa 0,0 l/m 2 min 0 min 0,0 UV-I 265 W/m 12,9 km/h (3 Bft)
10.09.2013 09:48 11,7 C 11,7 C 94 % 1012,7 hPa 0,0 l/m 0 min 0 min 0,0 UV-I 151 W/m 5,1 km/h (1 Bft)
10.09.2013 09:50 11,8 C 11,7 C 94 % 1012,8 hPa 0,0 l/m 0 min 0 min 0,0 UV-I 137 W/m 0,0 km/h (0 Bft)
10.09.2013 09:52 11,8 C 11,7 C 94 % 1012,9 hPa 0,0 l/m 0 min 0 min 0,0 UV-I 167 W/m 12,9 km/h (3 Bft)
10.09.2013 09:54 11,8 C 11,7 C 93 % 1012,9 hPa 0,0 l/m 2 min 0 min 0,0 UV-I 244 W/m 20,6 km/h (4 Bft)
10.09.2013 09:56 11,8 C 11,7 C 93 % 1012,9 hPa 0,0 l/m 2 min 0 min 0,0 UV-I 301 W/m 23,2 km/h (4 Bft)
10.09.2013 09:58 11,8 C 11,7 C 93 % 1012,9 hPa 0,0 l/m 2 min 0 min 0,5 UV-I 316 W/m 18,0 km/h (3 Bft)
10.09.2013 10:00 11,9 C 11,7 C 93 % 1012,9 hPa 0,0 l/m 0 min 0 min 0,0 UV-I 204 W/m 18,0 km/h (3 Bft)
10.09.2013 10:02 12,1 C 11,7 C 92 % 1012,9 hPa 0,0 l/m 0 min 0 min 0,0 UV-I 188 W/m 2,6 km/h (1 Bft)
10.09.2013 10:06 12,1 C 11,7 C 92 % 1013,0 hPa 0,0 l/m 0 min 0 min 0,0 UV-I 146 W/m 15,4 km/h (3 Bft)
10.09.2013 10:08 12,0 C 11,7 C 92 % 1012,9 hPa 0,0 l/m 0 min 0 min 0,0 UV-I 109 W/m 2,6 km/h (1 Bft)
10.09.2013 10:10 11,9 C 11,1 C 92 % 1013,0 hPa 0,0 l/m 0 min 0 min 0,0 UV-I 72 W/m 12,9 km/h (3 Bft)
10.09.2013 10:12 11,9 C 11,1 C 91 % 1013,0 hPa 0,0 l/m 0 min 0 min 0,0 UV-I 56 W/m 15,4 km/h (3 Bft)
10.09.2013 10:14 11,8 C 11,1 C 91 % 1013,0 hPa 0,0 l/m 0 min 0 min 0,0 UV-I 54 W/m 20,6 km/h (4 Bft)
10.09.2013 10:16 11,8 C 11,1 C 91 % 1013,0 hPa 0,0 l/m 0 min 0 min 0,0 UV-I 65 W/m 18,0 km/h (3 Bft)
10.09.2013 10:18 11,7 C 11,1 C 91 % 1013,0 hPa 0,0 l/m 0 min 0 min 0,0 UV-I 76 W/m 12,9 km/h (3 Bft)
10.09.2013 10:20 11,7 C 11,1 C 92 % 1013,0 hPa 0,0 l/m 0 min 0 min 0,0 UV-I 88 W/m 10,3 km/h (2 Bft)
10.09.2013 10:22 11,7 C 11,1 C 92 % 1013,0 hPa 0,0 l/m 0 min 0 min 0,0 UV-I 109 W/m 7,7 km/h (2 Bft)
10.09.2013 10:24 11,8 C 11,1 C 92 % 1013,0 hPa 0,0 l/m 0 min 0 min 0,0 UV-I 120 W/m 2,6 km/h (1 Bft)
10.09.2013 10:26 11,8 C 11,1 C 92 % 1013,1 hPa 0,0 l/m 0 min 0 min 0,0 UV-I 113 W/m 2,6 km/h (1 Bft)
10.09.2013 10:28 11,8 C 11,1 C 92 % 1013,1 hPa 0,0 l/m 0 min 0 min 0,0 UV-I 120 W/m 7,7 km/h (2 Bft)
10.09.2013 10:30 11,9 C 11,7 C 92 % 1013,0 hPa 0,0 l/m 0 min 0 min 0,0 UV-I 130 W/m 15,4 km/h (3 Bft)
10.09.2013 10:32 11,9 C 11,7 C 92 % 1013,0 hPa 0,0 l/m 0 min 0 min 0,0 UV-I 146 W/m 5,1 km/h (1 Bft)
10.09.2013 10:34 11,9 C 11,7 C 92 % 1013,1 hPa 0,0 l/m 0 min 0 min 0,0 UV-I 163 W/m 12,9 km/h (3 Bft)
10.09.2013 10:36 12,0 C 11,7 C 92 % 1013,0 hPa 0,0 l/m 0 min 0 min 0,0 UV-I 169 W/m 2,6 km/h (1 Bft)
10.09.2013 10:38 12,1 C 11,7 C 92 % 1013,1 hPa 0,0 l/m 0 min 0 min 0,0 UV-I 176 W/m 7,7 km/h (2 Bft)
10.09.2013 10:40 12,2 C 12,2 C 92 % 1013,1 hPa 0,0 l/m 0 min 0 min 0,0 UV-I 183 W/m 7,7 km/h (2 Bft)
10.09.2013 10:42 12,3 C 12,2 C 92 % 1013,1 hPa 0,0 l/m 0 min 0 min 0,0 UV-I 183 W/m 2,6 km/h (1 Bft)
10.09.2013 10:44 12,4 C 12,2 C 92 % 1013,1 hPa 0,0 l/m 0 min 0 min 0,5 UV-I 209 W/m 7,7 km/h (2 Bft)
10.09.2013 10:46 12,5 C 12,2 C 92 % 1013,0 hPa 0,0 l/m 0 min 0 min 0,6 UV-I 227 W/m 12,9 km/h (3 Bft)
10.09.2013 10:48 12,5 C 12,2 C 92 % 1013,0 hPa 0,0 l/m 0 min 0 min 0,6 UV-I 230 W/m 12,9 km/h (3 Bft)
10.09.2013 10:50 12,5 C 12,2 C 91 % 1013,0 hPa 0,0 l/m 0 min 2 min 0,7 UV-I 232 W/m 15,4 km/h (3 Bft)
10.09.2013 10:52 12,6 C 12,2 C 91 % 1013,0 hPa 0,0 l/m 0 min 2 min 0,9 UV-I 276 W/m 12,9 km/h (3 Bft)
10.09.2013 10:54 12,7 C 12,8 C 91 % 1013,0 hPa 0,0 l/m 2 min 0 min 0,9 UV-I 304 W/m 7,7 km/h (2 Bft)
10.09.2013 10:56 12,9 C 12,8 C 91 % 1013,1 hPa 0,0 l/m 2 min 0 min 0,9 UV-I 313 W/m 10,3 km/h (2 Bft)
10.09.2013 10:58 13,0 C 13,3 C 91 % 1013,0 hPa 0,0 l/m 0 min 0 min 0,8 UV-I 285 W/m 15,4 km/h (3 Bft)
10.09.2013 11:00 13,1 C 12,8 C 90 % 1013,1 hPa 0,0 l/m 0 min 0 min 0,7 UV-I 255 W/m 20,6 km/h (4 Bft)
10.09.2013 11:02 12,9 C 12,8 C 90 % 1013,1 hPa 0,0 l/m 0 min 0 min 0,6 UV-I 232 W/m 18,0 km/h (3 Bft)
10.09.2013 11:06 13,0 C 12,8 C 90 % 1013,1 hPa 0,0 l/m 0 min 0 min 0,7 UV-I 250 W/m 10,3 km/h (2 Bft)
10.09.2013 11:08 13,1 C 12,8 C 90 % 1013,1 hPa 0,0 l/m 0 min 0 min 0,7 UV-I 264 W/m 10,3 km/h (2 Bft)
10.09.2013 11:10 13,1 C 12,8 C 90 % 1013,1 hPa 0,0 l/m 0 min 0 min 0,8 UV-I 255 W/m 10,3 km/h (2 Bft)
10.09.2013 11:12 13,2 C 13,3 C 89 % 1013,1 hPa 0,0 l/m 0 min 0 min 0,8 UV-I 274 W/m 12,9 km/h (3 Bft)
10.09.2013 11:14 13,2 C 13,3 C 89 % 1013,1 hPa 0,0 l/m 0 min 0 min 0,9 UV-I 281 W/m 12,9 km/h (3 Bft)
10.09.2013 11:16 13,3 C 13,3 C 89 % 1013,1 hPa 0,0 l/m 0 min 0 min 0,7 UV-I 258 W/m 18,0 km/h (3 Bft)
10.09.2013 11:18 13,3 C 13,3 C 90 % 1013,1 hPa 0,0 l/m 0 min 0 min 1,0 UV-I 320 W/m 0,0 km/h (0 Bft)
10.09.2013 11:20 13,5 C 13,9 C 90 % 1013,1 hPa 0,0 l/m 0 min 0 min 0,9 UV-I 279 W/m 10,3 km/h (2 Bft)
10.09.2013 11:22 13,6 C 13,3 C 89 % 1013,2 hPa 0,0 l/m 0 min 0 min 0,0 UV-I 197 W/m 15,4 km/h (3 Bft)
10.09.2013 11:24 13,5 C 13,3 C 88 % 1013,1 hPa 0,0 l/m 0 min 0 min 0,0 UV-I 149 W/m 10,3 km/h (2 Bft)
10.09.2013 11:26 13,5 C 13,3 C 88 % 1013,1 hPa 0,0 l/m 0 min 0 min 0,0 UV-I 137 W/m 2,6 km/h (1 Bft)
10.09.2013 11:28 13,5 C 12,8 C 89 % 1013,2 hPa 0,0 l/m 0 min 0 min 0,0 UV-I 105 W/m 7,7 km/h (2 Bft)
10.09.2013 11:30 13,4 C 12,8 C 88 % 1013,2 hPa 0,0 l/m 0 min 0 min 0,0 UV-I 123 W/m 10,3 km/h (2 Bft)
10.09.2013 11:32 13,4 C 12,8 C 89 % 1013,1 hPa 0,0 l/m 0 min 0 min 0,0 UV-I 130 W/m 2,6 km/h (1 Bft)
10.09.2013 11:34 13,4 C 12,8 C 89 % 1013,1 hPa 0,0 l/m 0 min 0 min 0,0 UV-I 111 W/m 5,1 km/h (1 Bft)
10.09.2013 11:36 13,4 C 12,2 C 89 % 1013,1 hPa 0,0 l/m 0 min 2 min 0,0 UV-I 102 W/m 12,9 km/h (3 Bft)
10.09.2013 11:38 13,3 C 12,2 C 89 % 1013,2 hPa 0,0 l/m 0 min 0 min 0,0 UV-I 113 W/m 0,0 km/h (0 Bft)
10.09.2013 11:40 13,3 C 12,2 C 89 % 1013,1 hPa 0,0 l/m 0 min 2 min 0,0 UV-I 134 W/m 18,0 km/h (3 Bft)
10.09.2013 11:42 13,2 C 12,2 C 89 % 1013,2 hPa 0,0 l/m 0 min 2 min 0,0 UV-I 149 W/m 12,9 km/h (3 Bft)
10.09.2013 11:44 13,2 C 12,2 C 89 % 1013,2 hPa 0,0 l/m 0 min 2 min 0,0 UV-I 169 W/m 18,0 km/h (3 Bft)
10.09.2013 11:46 13,2 C 12,2 C 89 % 1013,2 hPa 0,0 l/m 0 min 2 min 0,5 UV-I 193 W/m 10,3 km/h (2 Bft)
10.09.2013 11:48 13,2 C 12,8 C 89 % 1013,2 hPa 0,0 l/m 0 min 0 min 0,7 UV-I 229 W/m 15,4 km/h (3 Bft)
10.09.2013 11:50 13,3 C 12,8 C 90 % 1013,1 hPa 0,0 l/m 0 min 0 min 0,7 UV-I 239 W/m 7,7 km/h (2 Bft)
10.09.2013 11:52 13,4 C 12,8 C 89 % 1013,3 hPa 0,0 l/m 0 min 0 min 0,6 UV-I 230 W/m 18,0 km/h (3 Bft)
10.09.2013 11:54 13,4 C 13,3 C 90 % 1013,3 hPa 0,0 l/m 0 min 0 min 0,7 UV-I 239 W/m 0,0 km/h (0 Bft)
10.09.2013 11:56 13,6 C 13,3 C 89 % 1013,3 hPa 0,0 l/m 0 min 0 min 0,0 UV-I 188 W/m 7,7 km/h (2 Bft)
10.09.2013 11:58 13,6 C 13,3 C 89 % 1013,3 hPa 0,0 l/m 0 min 0 min 0,5 UV-I 190 W/m 15,4 km/h (3 Bft)
10.09.2013 12:00 13,6 C 12,8 C 88 % 1013,3 hPa 0,0 l/m 0 min 0 min 0,0 UV-I 185 W/m 18,0 km/h (3 Bft)
10.09.2013 12:02 13,5 C 12,8 C 88 % 1013,2 hPa 0,0 l/m 0 min 0 min 0,0 UV-I 178 W/m 18,0 km/h (3 Bft)
10.09.2013 12:04 13,5 C 12,8 C 88 % 1013,2 hPa 0,0 l/m 0 min 0 min 0,5 UV-I 204 W/m 15,4 km/h (3 Bft)
10.09.2013 12:06 13,5 C 12,8 C 88 % 1013,3 hPa 0,0 l/m 0 min 0 min 0,6 UV-I 218 W/m 12,9 km/h (3 Bft)
10.09.2013 12:08 13,6 C 13,3 C 88 % 1013,1 hPa 0,0 l/m 0 min 0 min 0,9 UV-I 267 W/m 12,9 km/h (3 Bft)
10.09.2013 12:10 13,6 C 13,3 C 88 % 1013,2 hPa 0,0 l/m 0 min 0 min 1,0 UV-I 295 W/m 18,0 km/h (3 Bft)
10.09.2013 12:12 13,6 C 13,3 C 87 % 1013,2 hPa 0,0 l/m 0 min 0 min 0,9 UV-I 294 W/m 23,2 km/h (4 Bft)
10.09.2013 12:14 13,6 C 13,3 C 87 % 1013,1 hPa 0,0 l/m 0 min 0 min 0,8 UV-I 262 W/m 10,3 km/h (2 Bft)
10.09.2013 12:16 13,7 C 13,3 C 86 % 1013,1 hPa 0,0 l/m 0 min 0 min 1,0 UV-I 295 W/m 12,9 km/h (3 Bft)
10.09.2013 12:18 13,7 C 13,9 C 87 % 1013,1 hPa 0,0 l/m 0 min 0 min 1,1 UV-I 308 W/m 10,3 km/h (2 Bft)
10.09.2013 12:20 13,9 C 13,9 C 87 % 1013,1 hPa 0,0 l/m 0 min 0 min 1,1 UV-I 304 W/m 12,9 km/h (3 Bft)
10.09.2013 12:22 13,9 C 13,9 C 86 % 1013,0 hPa 0,0 l/m 0 min 0 min 1,1 UV-I 308 W/m 18,0 km/h (3 Bft)
10.09.2013 12:24 14,0 C 13,9 C 86 % 1013,0 hPa 0,0 l/m 0 min 0 min 1,0 UV-I 301 W/m 2,6 km/h (1 Bft)
10.09.2013 12:26 14,2 C 13,9 C 86 % 1013,0 hPa 0,0 l/m 0 min 0 min 0,8 UV-I 258 W/m 20,6 km/h (4 Bft)
10.09.2013 12:28 14,2 C 13,9 C 85 % 1013,0 hPa 0,0 l/m 0 min 0 min 0,8 UV-I 244 W/m 18,0 km/h (3 Bft)
10.09.2013 12:30 14,2 C 13,9 C 85 % 1013,0 hPa 0,0 l/m 0 min 0 min 1,0 UV-I 274 W/m 20,6 km/h (4 Bft)
10.09.2013 12:32 14,2 C 13,9 C 85 % 1013,0 hPa 0,0 l/m 0 min 0 min 0,9 UV-I 264 W/m 18,0 km/h (3 Bft)
10.09.2013 12:34 14,2 C 13,9 C 85 % 1012,9 hPa 0,0 l/m 0 min 0 min 0,9 UV-I 271 W/m 10,3 km/h (2 Bft)
10.09.2013 12:36 14,2 C 13,9 C 84 % 1013,1 hPa 0,0 l/m 0 min 0 min 0,9 UV-I 269 W/m 25,7 km/h (4 Bft)
10.09.2013 12:38 14,2 C 13,9 C 84 % 1013,0 hPa 0,0 l/m 0 min 0 min 1,0 UV-I 287 W/m 18,0 km/h (3 Bft)
10.09.2013 12:40 14,2 C 13,9 C 84 % 1013,0 hPa 0,0 l/m 0 min 0 min 0,9 UV-I 276 W/m 10,3 km/h (2 Bft)
10.09.2013 12:42 14,3 C 13,9 C 84 % 1013,0 hPa 0,0 l/m 0 min 0 min 1,0 UV-I 272 W/m 12,9 km/h (3 Bft)
10.09.2013 12:44 14,3 C 13,9 C 84 % 1013,0 hPa 0,0 l/m 0 min 0 min 0,8 UV-I 251 W/m 18,0 km/h (3 Bft)
10.09.2013 12:46 14,3 C 13,9 C 84 % 1013,0 hPa 0,0 l/m 0 min 0 min 0,8 UV-I 244 W/m 20,6 km/h (4 Bft)
10.09.2013 12:48 14,2 C 13,9 C 84 % 1013,0 hPa 0,0 l/m 0 min 0 min 0,8 UV-I 229 W/m 7,7 km/h (2 Bft)
10.09.2013 12:50 14,3 C 13,9 C 84 % 1013,0 hPa 0,0 l/m 0 min 0 min 0,8 UV-I 232 W/m 12,9 km/h (3 Bft)
10.09.2013 12:52 14,2 C 13,9 C 83 % 1013,0 hPa 0,0 l/m 0 min 0 min 0,8 UV-I 239 W/m 25,7 km/h (4 Bft)
10.09.2013 12:54 14,2 C 13,9 C 83 % 1013,1 hPa 0,0 l/m 0 min 0 min 0,7 UV-I 221 W/m 5,1 km/h (1 Bft)
10.09.2013 12:56 14,2 C 13,9 C 84 % 1013,1 hPa 0,0 l/m 0 min 0 min 0,7 UV-I 216 W/m 20,6 km/h (4 Bft)
10.09.2013 12:58 14,2 C 13,9 C 83 % 1013,0 hPa 0,0 l/m 0 min 0 min 0,7 UV-I 221 W/m 23,2 km/h (4 Bft)
10.09.2013 13:00 14,2 C 13,9 C 83 % 1013,2 hPa 0,0 l/m 0 min 0 min 0,6 UV-I 199 W/m 10,3 km/h (2 Bft)
10.09.2013 13:02 14,2 C 13,9 C 84 % 1013,0 hPa 0,0 l/m 0 min 0 min 0,6 UV-I 204 W/m 2,6 km/h (1 Bft)
10.09.2013 13:06 14,2 C 13,9 C 84 % 1013,2 hPa 0,0 l/m 0 min 0 min 0,6 UV-I 206 W/m 23,2 km/h (4 Bft)
10.09.2013 13:08 14,2 C 13,9 C 84 % 1013,1 hPa 0,0 l/m 0 min 0 min 0,6 UV-I 209 W/m 2,6 km/h (1 Bft)
10.09.2013 13:10 14,2 C 13,9 C 84 % 1013,1 hPa 0,0 l/m 0 min 0 min 0,6 UV-I 200 W/m 12,9 km/h (3 Bft)
10.09.2013 13:12 14,2 C 13,9 C 85 % 1013,1 hPa 0,0 l/m 0 min 0 min 0,5 UV-I 183 W/m 15,4 km/h (3 Bft)
10.09.2013 13:14 14,2 C 13,9 C 84 % 1013,1 hPa 0,0 l/m 0 min 0 min 0,0 UV-I 174 W/m 23,2 km/h (4 Bft)
10.09.2013 13:16 14,2 C 13,3 C 84 % 1013,1 hPa 0,0 l/m 0 min 0 min 0,5 UV-I 174 W/m 12,9 km/h (3 Bft)
10.09.2013 13:18 14,2 C 13,3 C 84 % 1013,2 hPa 0,0 l/m 0 min 2 min 0,0 UV-I 174 W/m 18,0 km/h (3 Bft)
10.09.2013 13:20 14,2 C 13,9 C 84 % 1013,0 hPa 0,0 l/m 0 min 2 min 0,5 UV-I 181 W/m 15,4 km/h (3 Bft)
10.09.2013 13:22 14,2 C 13,3 C 85 % 1013,1 hPa 0,0 l/m 0 min 2 min 0,5 UV-I 176 W/m 2,6 km/h (1 Bft)
10.09.2013 13:24 14,2 C 12,8 C 85 % 1013,1 hPa 0,0 l/m 0 min 2 min 0,5 UV-I 172 W/m 18,0 km/h (3 Bft)
10.09.2013 13:26 14,2 C 12,8 C 85 % 1013,1 hPa 0,0 l/m 0 min 2 min 0,0 UV-I 167 W/m 7,7 km/h (2 Bft)
10.09.2013 13:28 14,2 C 12,8 C 86 % 1013,1 hPa 0,0 l/m 0 min 2 min 0,0 UV-I 142 W/m 15,4 km/h (3 Bft)
10.09.2013 13:30 14,2 C 12,2 C 86 % 1013,1 hPa 0,0 l/m 0 min 2 min 0,0 UV-I 151 W/m 12,9 km/h (3 Bft)
10.09.2013 13:32 14,0 C 12,2 C 86 % 1013,2 hPa 0,0 l/m 0 min 2 min 0,0 UV-I 171 W/m 12,9 km/h (3 Bft)
10.09.2013 13:34 14,0 C 12,2 C 87 % 1013,2 hPa 0,0 l/m 0 min 2 min 0,5 UV-I 172 W/m 0,0 km/h (0 Bft)
10.09.2013 13:36 14,0 C 12,2 C 88 % 1013,2 hPa 0,0 l/m 0 min 2 min 0,0 UV-I 148 W/m 0,0 km/h (0 Bft)
10.09.2013 13:38 14,0 C 12,2 C 89 % 1013,2 hPa 0,0 l/m 0 min 2 min 0,0 UV-I 127 W/m 0,0 km/h (0 Bft)
10.09.2013 13:40 13,9 C 12,2 C 89 % 1013,2 hPa 0,0 l/m 0 min 2 min 0,0 UV-I 114 W/m 0,0 km/h (0 Bft)
10.09.2013 13:42 13,9 C 12,2 C 89 % 1013,2 hPa 0,0 l/m 0 min 2 min 0,0 UV-I 120 W/m 10,3 km/h (2 Bft)
10.09.2013 13:44 13,8 C 12,2 C 89 % 1013,1 hPa 0,0 l/m 0 min 2 min 0,0 UV-I 146 W/m 2,6 km/h (1 Bft)
10.09.2013 13:46 13,8 C 12,2 C 90 % 1013,2 hPa 0,0 l/m 0 min 2 min 0,0 UV-I 162 W/m 10,3 km/h (2 Bft)
10.09.2013 13:48 13,7 C 12,2 C 90 % 1013,1 hPa 0,0 l/m 0 min 2 min 0,0 UV-I 165 W/m 7,7 km/h (2 Bft)
10.09.2013 13:50 13,7 C 12,2 C 90 % 1013,1 hPa 0,0 l/m 0 min 2 min 0,0 UV-I 160 W/m 2,6 km/h (1 Bft)
10.09.2013 13:52 13,7 C 12,2 C 90 % 1013,1 hPa 0,0 l/m 0 min 2 min 0,0 UV-I 160 W/m 7,7 km/h (2 Bft)
10.09.2013 13:54 13,7 C 12,2 C 90 % 1013,1 hPa 0,0 l/m 0 min 2 min 0,6 UV-I 179 W/m 2,6 km/h (1 Bft)
10.09.2013 13:56 13,7 C 12,2 C 91 % 1013,0 hPa 0,0 l/m 0 min 2 min 0,6 UV-I 185 W/m 0,0 km/h (0 Bft)
10.09.2013 13:58 13,6 C 12,2 C 91 % 1013,1 hPa 0,0 l/m 0 min 2 min 0,0 UV-I 163 W/m 2,6 km/h (1 Bft)
10.09.2013 14:00 13,6 C 12,2 C 91 % 1013,1 hPa 0,0 l/m 0 min 2 min 0,0 UV-I 109 W/m 0,0 km/h (0 Bft)
10.09.2013 14:02 13,6 C 12,2 C 91 % 1013,2 hPa 0,0 l/m 0 min 2 min 0,0 UV-I 81 W/m 15,4 km/h (3 Bft)
10.09.2013 14:06 13,4 C 11,7 C 91 % 1013,2 hPa 0,2 l/m 0 min 2 min 0,0 UV-I 88 W/m 12,9 km/h (3 Bft)
10.09.2013 14:08 13,3 C 11,7 C 92 % 1013,2 hPa 0,0 l/m 0 min 2 min 0,0 UV-I 118 W/m 10,3 km/h (2 Bft)
10.09.2013 14:10 13,3 C 12,2 C 92 % 1013,2 hPa 0,2 l/m 0 min 2 min 0,5 UV-I 190 W/m 5,1 km/h (1 Bft)
10.09.2013 14:12 13,3 C 12,2 C 92 % 1013,2 hPa 0,0 l/m 0 min 0 min 0,7 UV-I 220 W/m 5,1 km/h (1 Bft)
10.09.2013 14:14 13,3 C 12,2 C 93 % 1013,2 hPa 0,0 l/m 0 min 0 min 0,7 UV-I 214 W/m 2,6 km/h (1 Bft)
10.09.2013 14:16 13,4 C 12,2 C 93 % 1013,2 hPa 0,0 l/m 0 min 0 min 0,6 UV-I 199 W/m 2,6 km/h (1 Bft)
10.09.2013 14:18 13,4 C 12,8 C 93 % 1013,1 hPa 0,0 l/m 0 min 0 min 0,6 UV-I 206 W/m 0,0 km/h (0 Bft)
10.09.2013 14:20 13,4 C 12,8 C 94 % 1013,1 hPa 0,0 l/m 0 min 0 min 0,6 UV-I 197 W/m 0,0 km/h (0 Bft)
10.09.2013 14:22 13,5 C 12,8 C 94 % 1013,1 hPa 0,0 l/m 0 min 0 min 0,6 UV-I 199 W/m 2,6 km/h (1 Bft)
10.09.2013 14:24 13,6 C 12,8 C 94 % 1013,1 hPa 0,0 l/m 0 min 0 min 0,5 UV-I 186 W/m 2,6 km/h (1 Bft)
10.09.2013 14:26 13,5 C 12,2 C 94 % 1013,2 hPa 0,0 l/m 0 min 0 min 0,5 UV-I 178 W/m 7,7 km/h (2 Bft)
10.09.2013 14:28 13,6 C 12,2 C 94 % 1013,1 hPa 0,0 l/m 0 min 0 min 0,5 UV-I 176 W/m 2,6 km/h (1 Bft)
10.09.2013 14:30 13,6 C 12,8 C 94 % 1013,1 hPa 0,0 l/m 0 min 0 min 0,5 UV-I 171 W/m 2,6 km/h (1 Bft)
10.09.2013 14:32 13,7 C 12,8 C 94 % 1013,1 hPa 0,0 l/m 0 min 0 min 0,5 UV-I 167 W/m 0,0 km/h (0 Bft)
10.09.2013 14:34 13,8 C 12,8 C 94 % 1013,1 hPa 0,0 l/m 0 min 0 min 0,5 UV-I 163 W/m 2,6 km/h (1 Bft)
10.09.2013 14:36 13,8 C 12,8 C 94 % 1013,1 hPa 0,0 l/m 0 min 0 min 0,0 UV-I 158 W/m 10,3 km/h (2 Bft)
10.09.2013 14:38 13,8 C 12,8 C 93 % 1013,2 hPa 0,0 l/m 0 min 0 min 0,0 UV-I 146 W/m 10,3 km/h (2 Bft)
10.09.2013 14:40 13,8 C 12,2 C 93 % 1013,1 hPa 0,0 l/m 0 min 0 min 0,0 UV-I 123 W/m 5,1 km/h (1 Bft)
10.09.2013 14:42 13,8 C 12,2 C 93 % 1013,1 hPa 0,0 l/m 0 min 2 min 0,0 UV-I 134 W/m 12,9 km/h (3 Bft)
10.09.2013 14:44 13,8 C 12,2 C 92 % 1013,0 hPa 0,0 l/m 0 min 2 min 0,5 UV-I 165 W/m 12,9 km/h (3 Bft)
10.09.2013 14:46 13,8 C 12,2 C 92 % 1013,1 hPa 0,0 l/m 0 min 2 min 0,7 UV-I 213 W/m 10,3 km/h (2 Bft)
10.09.2013 14:48 13,8 C 12,8 C 92 % 1013,0 hPa 0,0 l/m 0 min 0 min 0,9 UV-I 236 W/m 0,0 km/h (0 Bft)
10.09.2013 14:50 13,9 C 12,8 C 92 % 1013,0 hPa 0,0 l/m 0 min 0 min 0,9 UV-I 232 W/m 0,0 km/h (0 Bft)
10.09.2013 14:52 14,0 C 12,8 C 92 % 1013,0 hPa 0,0 l/m 0 min 0 min 0,8 UV-I 213 W/m 0,0 km/h (0 Bft)
10.09.2013 14:54 14,2 C 12,8 C 92 % 1013,0 hPa 0,0 l/m 0 min 0 min 0,6 UV-I 202 W/m 2,6 km/h (1 Bft)
10.09.2013 14:56 14,2 C 13,3 C 92 % 1013,1 hPa 0,0 l/m 0 min 2 min 0,8 UV-I 225 W/m 0,0 km/h (0 Bft)
10.09.2013 14:58 14,2 C 13,3 C 93 % 1013,1 hPa 0,0 l/m 0 min 0 min 1,3 UV-I 260 W/m 7,7 km/h (2 Bft)
10.09.2013 15:00 14,2 C 13,3 C 92 % 1013,1 hPa 0,0 l/m 0 min 0 min 1,3 UV-I 316 W/m 15,4 km/h (3 Bft)
10.09.2013 15:02 14,3 C 13,3 C 91 % 1013,1 hPa 0,0 l/m 0 min 0 min 1,3 UV-I 306 W/m 10,3 km/h (2 Bft)
10.09.2013 15:06 14,7 C 13,9 C 91 % 1013,1 hPa 0,0 l/m 2 min 0 min 1,6 UV-I 408 W/m 10,3 km/h (2 Bft)
10.09.2013 15:08 14,9 C 13,9 C 91 % 1013,0 hPa 0,0 l/m 2 min 0 min 1,3 UV-I 350 W/m 2,6 km/h (1 Bft)
10.09.2013 15:10 15,1 C 13,9 C 91 % 1013,0 hPa 0,0 l/m 0 min 0 min 1,3 UV-I 341 W/m 10,3 km/h (2 Bft)
10.09.2013 15:12 15,1 C 13,9 C 89 % 1013,0 hPa 0,0 l/m 2 min 0 min 1,6 UV-I 427 W/m 10,3 km/h (2 Bft)
10.09.2013 15:14 15,3 C 14,4 C 89 % 1012,9 hPa 0,0 l/m 2 min 0 min 1,6 UV-I 394 W/m 5,1 km/h (1 Bft)
10.09.2013 15:16 15,4 C 13,9 C 88 % 1012,9 hPa 0,0 l/m 0 min 0 min 1,1 UV-I 311 W/m 15,4 km/h (3 Bft)
10.09.2013 15:18 15,4 C 13,9 C 87 % 1012,9 hPa 0,0 l/m 0 min 0 min 0,7 UV-I 216 W/m 12,9 km/h (3 Bft)
10.09.2013 15:20 15,4 C 13,9 C 86 % 1013,0 hPa 0,0 l/m 0 min 0 min 0,9 UV-I 251 W/m 7,7 km/h (2 Bft)
10.09.2013 15:22 15,3 C 13,9 C 86 % 1012,8 hPa 0,0 l/m 0 min 0 min 0,8 UV-I 250 W/m 15,4 km/h (3 Bft)
10.09.2013 15:24 15,1 C 13,3 C 85 % 1012,9 hPa 0,0 l/m 0 min 2 min 0,6 UV-I 220 W/m 23,2 km/h (4 Bft)
10.09.2013 15:26 14,9 C 13,3 C 85 % 1013,0 hPa 0,0 l/m 0 min 2 min 0,5 UV-I 193 W/m 23,2 km/h (4 Bft)
10.09.2013 15:28 14,7 C 12,8 C 85 % 1013,0 hPa 0,0 l/m 0 min 2 min 0,5 UV-I 197 W/m 23,2 km/h (4 Bft)
10.09.2013 15:30 14,6 C 12,8 C 87 % 1012,9 hPa 0,0 l/m 0 min 2 min 0,6 UV-I 213 W/m 12,9 km/h (3 Bft)
10.09.2013 15:32 14,5 C 13,3 C 88 % 1012,9 hPa 0,0 l/m 0 min 2 min 0,7 UV-I 246 W/m 0,0 km/h (0 Bft)
10.09.2013 15:34 14,4 C 13,3 C 89 % 1013,0 hPa 0,0 l/m 0 min 2 min 0,5 UV-I 223 W/m 18,0 km/h (3 Bft)
10.09.2013 15:36 14,2 C 12,8 C 89 % 1013,0 hPa 0,0 l/m 0 min 2 min 0,5 UV-I 209 W/m 12,9 km/h (3 Bft)
10.09.2013 15:38 14,2 C 12,8 C 90 % 1013,0 hPa 0,0 l/m 0 min 2 min 0,7 UV-I 258 W/m 10,3 km/h (2 Bft)
10.09.2013 15:40 14,2 C 12,8 C 90 % 1012,9 hPa 0,0 l/m 0 min 2 min 0,6 UV-I 243 W/m 0,0 km/h (0 Bft)
10.09.2013 15:42 14,2 C 12,8 C 90 % 1013,0 hPa 0,0 l/m 0 min 0 min 0,5 UV-I 207 W/m 20,6 km/h (4 Bft)
10.09.2013 15:44 14,2 C 12,8 C 90 % 1013,0 hPa 0,0 l/m 0 min 0 min 0,0 UV-I 146 W/m 7,7 km/h (2 Bft)
10.09.2013 15:46 14,2 C 12,8 C 91 % 1012,9 hPa 0,0 l/m 0 min 0 min 0,0 UV-I 113 W/m 5,1 km/h (1 Bft)
10.09.2013 15:48 14,2 C 12,8 C 91 % 1013,0 hPa 0,0 l/m 0 min 2 min 0,0 UV-I 91 W/m 7,7 km/h (2 Bft)
10.09.2013 15:50 14,2 C 12,8 C 91 % 1012,9 hPa 0,0 l/m 0 min 2 min 0,0 UV-I 88 W/m 7,7 km/h (2 Bft)
10.09.2013 15:52 14,2 C 12,2 C 91 % 1013,0 hPa 0,0 l/m 0 min 2 min 0,0 UV-I 88 W/m 7,7 km/h (2 Bft)
10.09.2013 15:54 14,1 C 12,2 C 91 % 1013,0 hPa 0,0 l/m 0 min 2 min 0,0 UV-I 102 W/m 10,3 km/h (2 Bft)
10.09.2013 15:56 13,9 C 12,2 C 91 % 1013,1 hPa 0,0 l/m 0 min 2 min 0,0 UV-I 127 W/m 7,7 km/h (2 Bft)
10.09.2013 15:58 13,9 C 12,8 C 91 % 1013,0 hPa 0,0 l/m 0 min 2 min 0,0 UV-I 142 W/m 7,7 km/h (2 Bft)
10.09.2013 16:00 13,9 C 12,8 C 92 % 1013,0 hPa 0,0 l/m 0 min 2 min 0,0 UV-I 188 W/m 15,4 km/h (3 Bft)
10.09.2013 16:02 13,9 C 12,8 C 92 % 1013,1 hPa 0,0 l/m 0 min 0 min 0,6 UV-I 244 W/m 12,9 km/h (3 Bft)
10.09.2013 16:06 14,1 C 12,8 C 92 % 1012,9 hPa 0,0 l/m 2 min 2 min 0,9 UV-I 308 W/m 15,4 km/h (3 Bft)
10.09.2013 16:08 14,2 C 13,3 C 92 % 1013,0 hPa 0,0 l/m 2 min 0 min 1,0 UV-I 378 W/m 12,9 km/h (3 Bft)
10.09.2013 16:10 14,3 C 13,3 C 92 % 1012,9 hPa 0,0 l/m 2 min 0 min 0,9 UV-I 348 W/m 0,0 km/h (0 Bft)
10.09.2013 16:12 14,5 C 13,3 C 92 % 1012,9 hPa 0,0 l/m 2 min 0 min 0,9 UV-I 325 W/m 10,3 km/h (2 Bft)
10.09.2013 16:14 14,6 C 13,3 C 91 % 1013,0 hPa 0,0 l/m 2 min 0 min 0,8 UV-I 297 W/m 10,3 km/h (2 Bft)
10.09.2013 16:16 14,6 C 13,3 C 91 % 1013,1 hPa 0,0 l/m 0 min 0 min 0,8 UV-I 281 W/m 10,3 km/h (2 Bft)
10.09.2013 16:18 14,7 C 13,9 C 91 % 1013,0 hPa 0,0 l/m 0 min 0 min 0,7 UV-I 274 W/m 0,0 km/h (0 Bft)
10.09.2013 16:20 14,8 C 13,9 C 91 % 1013,1 hPa 0,0 l/m 0 min 0 min 0,7 UV-I 260 W/m 15,4 km/h (3 Bft)
10.09.2013 16:22 14,7 C 13,3 C 89 % 1013,0 hPa 0,0 l/m 0 min 0 min 0,7 UV-I 248 W/m 7,7 km/h (2 Bft)
10.09.2013 16:24 14,7 C 13,3 C 88 % 1013,0 hPa 0,0 l/m 0 min 0 min 0,6 UV-I 241 W/m 10,3 km/h (2 Bft)
10.09.2013 16:26 14,7 C 13,3 C 89 % 1013,0 hPa 0,0 l/m 0 min 0 min 0,6 UV-I 246 W/m 10,3 km/h (2 Bft)
10.09.2013 16:28 14,7 C 13,9 C 89 % 1013,1 hPa 0,0 l/m 0 min 0 min 0,6 UV-I 248 W/m 7,7 km/h (2 Bft)
10.09.2013 16:30 14,8 C 13,9 C 89 % 1013,1 hPa 0,0 l/m 0 min 0 min 0,6 UV-I 258 W/m 0,0 km/h (0 Bft)
10.09.2013 16:32 14,9 C 13,9 C 89 % 1013,1 hPa 0,0 l/m 0 min 0 min 0,6 UV-I 267 W/m 10,3 km/h (2 Bft)
10.09.2013 16:34 14,9 C 13,9 C 88 % 1013,0 hPa 0,0 l/m 0 min 0 min 0,5 UV-I 267 W/m 12,9 km/h (3 Bft)
10.09.2013 16:36 15,0 C 13,9 C 88 % 1013,0 hPa 0,0 l/m 0 min 0 min 0,0 UV-I 230 W/m 2,6 km/h (1 Bft)
10.09.2013 16:38 14,9 C 13,9 C 88 % 1013,0 hPa 0,0 l/m 0 min 0 min 0,0 UV-I 204 W/m 18,0 km/h (3 Bft)
10.09.2013 16:40 15,1 C 13,9 C 88 % 1013,1 hPa 0,0 l/m 0 min 0 min 0,0 UV-I 193 W/m 10,3 km/h (2 Bft)
10.09.2013 16:42 15,1 C 13,9 C 88 % 1013,1 hPa 0,0 l/m 0 min 2 min 0,0 UV-I 181 W/m 5,1 km/h (1 Bft)
10.09.2013 16:44 15,0 C 13,9 C 87 % 1013,1 hPa 0,0 l/m 0 min 2 min 0,0 UV-I 176 W/m 2,6 km/h (1 Bft)
10.09.2013 16:46 15,0 C 13,3 C 87 % 1013,1 hPa 0,0 l/m 0 min 0 min 0,0 UV-I 183 W/m 12,9 km/h (3 Bft)
10.09.2013 16:48 15,0 C 13,3 C 87 % 1013,0 hPa 0,0 l/m 0 min 0 min 0,0 UV-I 223 W/m 15,4 km/h (3 Bft)
10.09.2013 16:50 15,1 C 13,9 C 87 % 1013,0 hPa 0,0 l/m 0 min 0 min 0,0 UV-I 223 W/m 7,7 km/h (2 Bft)
10.09.2013 16:52 15,2 C 13,9 C 87 % 1013,0 hPa 0,0 l/m 2 min 0 min 0,0 UV-I 265 W/m 5,1 km/h (1 Bft)
10.09.2013 16:54 15,2 C 13,9 C 87 % 1013,1 hPa 0,0 l/m 2 min 0 min 0,5 UV-I 292 W/m 10,3 km/h (2 Bft)
10.09.2013 16:56 15,3 C 13,9 C 86 % 1012,9 hPa 0,0 l/m 2 min 0 min 0,5 UV-I 251 W/m 15,4 km/h (3 Bft)
10.09.2013 16:58 15,4 C 13,9 C 86 % 1012,8 hPa 0,0 l/m 0 min 0 min 0,5 UV-I 227 W/m 0,0 km/h (0 Bft)
10.09.2013 17:00 15,6 C 13,9 C 86 % 1012,8 hPa 0,0 l/m 2 min 0 min 0,8 UV-I 436 W/m 2,6 km/h (1 Bft)
10.09.2013 17:02 15,7 C 14,4 C 85 % 1012,8 hPa 0,0 l/m 2 min 0 min 0,6 UV-I 274 W/m 2,6 km/h (1 Bft)
10.09.2013 17:06 15,9 C 14,4 C 83 % 1012,9 hPa 0,0 l/m 2 min 0 min 0,5 UV-I 350 W/m 18,0 km/h (3 Bft)
10.09.2013 17:08 15,9 C 14,4 C 82 % 1012,8 hPa 0,0 l/m 2 min 0 min 0,0 UV-I 243 W/m 12,9 km/h (3 Bft)
10.09.2013 17:10 15,9 C 14,4 C 81 % 1012,8 hPa 0,0 l/m 2 min 0 min 0,5 UV-I 243 W/m 7,7 km/h (2 Bft)
10.09.2013 17:12 16,0 C 15,0 C 80 % 1012,8 hPa 0,0 l/m 0 min 0 min 0,0 UV-I 192 W/m 15,4 km/h (3 Bft)
10.09.2013 17:14 15,9 C 14,4 C 80 % 1012,8 hPa 0,0 l/m 2 min 0 min 0,0 UV-I 236 W/m 12,9 km/h (3 Bft)
10.09.2013 17:16 15,9 C 14,4 C 80 % 1012,8 hPa 0,0 l/m 2 min 0 min 0,6 UV-I 227 W/m 2,6 km/h (1 Bft)
10.09.2013 17:18 16,1 C 14,4 C 81 % 1012,8 hPa 0,0 l/m 2 min 0 min 0,6 UV-I 378 W/m 12,9 km/h (3 Bft)
10.09.2013 17:20 16,2 C 15,0 C 80 % 1012,8 hPa 0,0 l/m 2 min 0 min 0,0 UV-I 362 W/m 2,6 km/h (1 Bft)
10.09.2013 17:22 16,2 C 15,0 C 80 % 1012,8 hPa 0,0 l/m 0 min 0 min 0,0 UV-I 216 W/m 10,3 km/h (2 Bft)
10.09.2013 17:24 16,1 C 15,0 C 79 % 1012,8 hPa 0,0 l/m 2 min 0 min 0,5 UV-I 383 W/m 18,0 km/h (3 Bft)
10.09.2013 17:26 16,2 C 15,0 C 80 % 1012,8 hPa 0,0 l/m 2 min 0 min 0,5 UV-I 383 W/m 15,4 km/h (3 Bft)
10.09.2013 17:28 16,2 C 15,0 C 80 % 1012,8 hPa 0,0 l/m 2 min 0 min 0,0 UV-I 276 W/m 7,7 km/h (2 Bft)
10.09.2013 17:30 16,2 C 15,0 C 79 % 1012,8 hPa 0,0 l/m 0 min 0 min 0,0 UV-I 149 W/m 12,9 km/h (3 Bft)
10.09.2013 17:32 16,1 C 15,0 C 79 % 1013,0 hPa 0,0 l/m 0 min 0 min 0,0 UV-I 91 W/m 5,1 km/h (1 Bft)
10.09.2013 17:34 15,9 C 14,4 C 80 % 1012,9 hPa 0,0 l/m 0 min 0 min 0,0 UV-I 91 W/m 7,7 km/h (2 Bft)
10.09.2013 17:36 15,8 C 14,4 C 80 % 1012,9 hPa 0,0 l/m 0 min 0 min 0,0 UV-I 86 W/m 0,0 km/h (0 Bft)
10.09.2013 17:38 15,7 C 14,4 C 80 % 1012,9 hPa 0,0 l/m 0 min 0 min 0,0 UV-I 86 W/m 0,0 km/h (0 Bft)
10.09.2013 17:40 15,5 C 14,4 C 80 % 1012,9 hPa 0,0 l/m 0 min 0 min 0,0 UV-I 88 W/m 12,9 km/h (3 Bft)
10.09.2013 17:42 15,4 C 14,4 C 80 % 1012,9 hPa 0,0 l/m 2 min 0 min 0,0 UV-I 244 W/m 2,6 km/h (1 Bft)
10.09.2013 17:44 15,4 C 14,4 C 80 % 1012,9 hPa 0,0 l/m 0 min 0 min 0,0 UV-I 151 W/m 10,3 km/h (2 Bft)
10.09.2013 17:46 15,5 C 14,4 C 80 % 1012,9 hPa 0,0 l/m 0 min 0 min 0,0 UV-I 179 W/m 12,9 km/h (3 Bft)
10.09.2013 17:48 15,5 C 14,4 C 80 % 1012,8 hPa 0,0 l/m 0 min 0 min 0,0 UV-I 139 W/m 12,9 km/h (3 Bft)
10.09.2013 17:50 15,5 C 14,4 C 79 % 1012,8 hPa 0,0 l/m 0 min 0 min 0,0 UV-I 132 W/m 12,9 km/h (3 Bft)
10.09.2013 17:52 15,4 C 14,4 C 78 % 1012,8 hPa 0,0 l/m 0 min 0 min 0,0 UV-I 118 W/m 20,6 km/h (4 Bft)
10.09.2013 17:54 15,4 C 14,4 C 78 % 1012,7 hPa 0,0 l/m 0 min 0 min 0,0 UV-I 107 W/m 23,2 km/h (4 Bft)
10.09.2013 17:56 15,3 C 14,4 C 79 % 1012,7 hPa 0,0 l/m 0 min 0 min 0,0 UV-I 109 W/m 20,6 km/h (4 Bft)
10.09.2013 17:58 15,3 C 13,9 C 79 % 1012,7 hPa 0,0 l/m 0 min 0 min 0,0 UV-I 105 W/m 7,7 km/h (2 Bft)
10.09.2013 18:00 15,2 C 13,9 C 79 % 1012,7 hPa 0,0 l/m 0 min 0 min 0,0 UV-I 88 W/m 30,9 km/h (5 Bft)
10.09.2013 18:02 15,2 C 13,9 C 79 % 1012,7 hPa 0,0 l/m 0 min 0 min 0,0 UV-I 81 W/m 15,4 km/h (3 Bft)
10.09.2013 18:06 15,1 C 13,9 C 80 % 1012,7 hPa 0,0 l/m 0 min 0 min 0,0 UV-I 77 W/m 15,4 km/h (3 Bft)
10.09.2013 18:08 15,1 C 13,9 C 80 % 1012,7 hPa 0,0 l/m 0 min 0 min 0,0 UV-I 77 W/m 5,1 km/h (1 Bft)
10.09.2013 18:10 15,0 C 13,9 C 80 % 1012,7 hPa 0,0 l/m 0 min 0 min 0,0 UV-I 62 W/m 15,4 km/h (3 Bft)
10.09.2013 18:12 15,0 C 13,9 C 80 % 1012,7 hPa 0,0 l/m 0 min 0 min 0,0 UV-I 53 W/m 7,7 km/h (2 Bft)
10.09.2013 18:14 14,9 C 13,9 C 81 % 1012,8 hPa 0,0 l/m 0 min 0 min 0,0 UV-I 53 W/m 7,7 km/h (2 Bft)
10.09.2013 18:16 14,9 C 13,9 C 81 % 1012,8 hPa 0,0 l/m 0 min 0 min 0,0 UV-I 42 W/m 15,4 km/h (3 Bft)
10.09.2013 18:18 14,9 C 13,3 C 81 % 1012,8 hPa 0,0 l/m 0 min 0 min 0,0 UV-I 39 W/m 10,3 km/h (2 Bft)
10.09.2013 18:20 14,8 C 13,3 C 81 % 1012,8 hPa 0,0 l/m 0 min 0 min 0,0 UV-I 28 W/m 12,9 km/h (3 Bft)
10.09.2013 18:22 14,8 C 13,3 C 81 % 1012,9 hPa 0,0 l/m 0 min 0 min 0,0 UV-I 18 W/m 23,2 km/h (4 Bft)
10.09.2013 18:24 14,8 C 13,3 C 81 % 1013,0 hPa 0,0 l/m 0 min 2 min 0,0 UV-I 18 W/m 10,3 km/h (2 Bft)
10.09.2013 18:26 14,7 C 12,2 C 82 % 1013,0 hPa 0,0 l/m 0 min 2 min 0,0 UV-I 23 W/m 18,0 km/h (3 Bft)
10.09.2013 18:28 14,4 C 11,7 C 83 % 1012,9 hPa 0,2 l/m 0 min 2 min 0,0 UV-I 26 W/m 7,7 km/h (2 Bft)
10.09.2013 18:30 14,2 C 11,7 C 84 % 1013,0 hPa 0,0 l/m 0 min 2 min 0,0 UV-I 28 W/m 0,0 km/h (0 Bft)
10.09.2013 18:32 14,1 C 11,7 C 86 % 1012,9 hPa 0,0 l/m 0 min 2 min 0,0 UV-I 26 W/m 2,6 km/h (1 Bft)
10.09.2013 18:34 13,8 C 11,7 C 87 % 1012,8 hPa 0,0 l/m 0 min 2 min 0,0 UV-I 37 W/m 30,9 km/h (5 Bft)
10.09.2013 18:36 13,7 C 11,7 C 87 % 1012,8 hPa 0,0 l/m 0 min 0 min 0,0 UV-I 53 W/m 2,6 km/h (1 Bft)
10.09.2013 18:38 13,7 C 11,7 C 87 % 1012,8 hPa 0,0 l/m 0 min 0 min 0,0 UV-I 65 W/m 15,4 km/h (3 Bft)
10.09.2013 18:40 13,6 C 11,7 C 88 % 1012,8 hPa 0,0 l/m 0 min 0 min 0,0 UV-I 67 W/m 12,9 km/h (3 Bft)
10.09.2013 18:42 13,6 C 11,7 C 88 % 1012,8 hPa 0,0 l/m 0 min 0 min 0,0 UV-I 65 W/m 23,2 km/h (4 Bft)
10.09.2013 18:44 13,6 C 11,7 C 87 % 1012,9 hPa 0,0 l/m 0 min 0 min 0,0 UV-I 63 W/m 18,0 km/h (3 Bft)
10.09.2013 18:46 13,6 C 11,1 C 87 % 1012,9 hPa 0,0 l/m 0 min 0 min 0,0 UV-I 60 W/m 15,4 km/h (3 Bft)
10.09.2013 18:48 13,6 C 11,1 C 87 % 1012,9 hPa 0,2 l/m 0 min 0 min 0,0 UV-I 56 W/m 15,4 km/h (3 Bft)
10.09.2013 18:50 13,6 C 11,1 C 87 % 1013,0 hPa 0,0 l/m 0 min 0 min 0,0 UV-I 53 W/m 12,9 km/h (3 Bft)
10.09.2013 18:52 13,6 C 11,7 C 88 % 1012,9 hPa 0,0 l/m 0 min 0 min 0,0 UV-I 47 W/m 10,3 km/h (2 Bft)
10.09.2013 18:54 13,6 C 11,1 C 88 % 1012,9 hPa 0,0 l/m 0 min 0 min 0,0 UV-I 40 W/m 23,2 km/h (4 Bft)
10.09.2013 18:56 13,6 C 11,1 C 88 % 1012,9 hPa 0,0 l/m 0 min 0 min 0,0 UV-I 37 W/m 20,6 km/h (4 Bft)
10.09.2013 18:58 13,5 C 11,7 C 88 % 1012,9 hPa 0,0 l/m 0 min 0 min 0,0 UV-I 26 W/m 10,3 km/h (2 Bft)
10.09.2013 19:00 13,5 C 11,7 C 88 % 1012,9 hPa 0,0 l/m 0 min 0 min 0,0 UV-I 19 W/m 7,7 km/h (2 Bft)
10.09.2013 19:02 13,5 C 11,7 C 88 % 1012,8 hPa 0,0 l/m 0 min 0 min 0,0 UV-I 12 W/m 2,6 km/h (1 Bft)
10.09.2013 19:06 13,4 C 11,7 C 89 % 1012,8 hPa 0,0 l/m 0 min 2 min 0,0 UV-I 14 W/m 5,1 km/h (1 Bft)
10.09.2013 19:08 13,4 C 11,7 C 89 % 1012,8 hPa 0,0 l/m 0 min 2 min 0,0 UV-I 16 W/m 7,7 km/h (2 Bft)
10.09.2013 19:10 13,4 C 11,7 C 89 % 1012,8 hPa 0,0 l/m 0 min 2 min 0,0 UV-I 21 W/m 5,1 km/h (1 Bft)
10.09.2013 19:12 13,3 C 11,1 C 90 % 1012,8 hPa 0,0 l/m 0 min 2 min 0,0 UV-I 25 W/m 2,6 km/h (1 Bft)
10.09.2013 19:14 13,2 C 11,1 C 90 % 1012,8 hPa 0,0 l/m 0 min 2 min 0,0 UV-I 23 W/m 15,4 km/h (3 Bft)
10.09.2013 19:16 13,2 C 11,1 C 90 % 1012,8 hPa 0,0 l/m 0 min 0 min 0,0 UV-I 18 W/m 2,6 km/h (1 Bft)
10.09.2013 19:18 13,2 C 11,1 C 91 % 1012,8 hPa 0,0 l/m 0 min 0 min 0,0 UV-I 16 W/m 5,1 km/h (1 Bft)
10.09.2013 19:20 13,2 C 11,1 C 91 % 1012,8 hPa 0,0 l/m 0 min 0 min 0,0 UV-I 14 W/m 5,1 km/h (1 Bft)
10.09.2013 19:22 13,1 C 11,1 C 91 % 1012,9 hPa 0,0 l/m 0 min 0 min 0,0 UV-I 16 W/m 5,1 km/h (1 Bft)
10.09.2013 19:24 13,1 C 11,1 C 91 % 1012,8 hPa 0,0 l/m 0 min 0 min 0,0 UV-I 16 W/m 5,1 km/h (1 Bft)
10.09.2013 19:26 13,1 C 11,1 C 91 % 1012,7 hPa 0,0 l/m 0 min 2 min 0,0 UV-I 12 W/m 15,4 km/h (3 Bft)
10.09.2013 19:28 13,1 C 11,1 C 91 % 1012,8 hPa 0,0 l/m 0 min 0 min 0,0 UV-I 12 W/m 15,4 km/h (3 Bft)
10.09.2013 19:30 13,1 C 11,1 C 91 % 1012,7 hPa 0,0 l/m 0 min 0 min 0,0 UV-I 11 W/m 7,7 km/h (2 Bft)
10.09.2013 19:32 13,1 C 11,1 C 91 % 1012,7 hPa 0,0 l/m 0 min 0 min 0,0 UV-I 11 W/m 20,6 km/h (4 Bft)
10.09.2013 19:34 13,1 C 11,1 C 91 % 1012,7 hPa 0,0 l/m 0 min 0 min 0,0 UV-I 9 W/m 10,3 km/h (2 Bft)
10.09.2013 19:36 13,1 C 11,1 C 91 % 1012,8 hPa 0,0 l/m 0 min 0 min 0,0 UV-I 7 W/m 10,3 km/h (2 Bft)
10.09.2013 19:38 13,1 C 11,1 C 91 % 1012,8 hPa 0,0 l/m 0 min 0 min 0,0 UV-I 0 W/m 10,3 km/h (2 Bft)
10.09.2013 19:40 13,1 C 11,1 C 91 % 1012,7 hPa 0,0 l/m 0 min 0 min 0,0 UV-I 7 W/m 12,9 km/h (3 Bft)
10.09.2013 19:42 13,1 C 11,1 C 91 % 1012,6 hPa 0,0 l/m 0 min 0 min 0,0 UV-I 7 W/m 10,3 km/h (2 Bft)
10.09.2013 19:44 13,1 C 11,1 C 91 % 1012,6 hPa 0,0 l/m 0 min 0 min 0,0 UV-I 5 W/m 15,4 km/h (3 Bft)
10.09.2013 19:46 13,1 C 11,1 C 90 % 1012,6 hPa 0,0 l/m 0 min 0 min 0,0 UV-I 5 W/m 12,9 km/h (3 Bft)
10.09.2013 19:48 13,1 C 11,1 C 91 % 1012,6 hPa 0,0 l/m 0 min 0 min 0,0 UV-I 5 W/m 10,3 km/h (2 Bft)
10.09.2013 19:50 13,0 C 11,1 C 91 % 1012,5 hPa 0,0 l/m 0 min 0 min 0,0 UV-I 0 W/m 12,9 km/h (3 Bft)
10.09.2013 19:52 13,0 C 11,1 C 90 % 1012,6 hPa 0,0 l/m 0 min 0 min 0,0 UV-I 0 W/m 28,3 km/h (4 Bft)
10.09.2013 19:54 13,0 C 11,1 C 90 % 1012,6 hPa 0,0 l/m 0 min 0 min 0,0 UV-I 0 W/m 7,7 km/h (2 Bft)
10.09.2013 19:56 13,0 C 11,1 C 90 % 1012,6 hPa 0,0 l/m 0 min 0 min 0,0 UV-I 0 W/m 18,0 km/h (3 Bft)
10.09.2013 19:58 13,0 C 11,1 C 90 % 1012,6 hPa 0,0 l/m 0 min 0 min 0,0 UV-I 0 W/m 7,7 km/h (2 Bft)
10.09.2013 20:00 12,9 C 11,1 C 90 % 1012,6 hPa 0,0 l/m 0 min 0 min 0,0 UV-I 0 W/m 23,2 km/h (4 Bft)
10.09.2013 20:02 12,9 C 11,1 C 90 % 1012,5 hPa 0,0 l/m 0 min 0 min 0,0 UV-I 0 W/m 20,6 km/h (4 Bft)
10.09.2013 20:06 12,9 C 11,1 C 90 % 1012,5 hPa 0,0 l/m 0 min 0 min 0,0 UV-I 0 W/m 10,3 km/h (2 Bft)
10.09.2013 20:08 12,9 C 11,1 C 90 % 1012,6 hPa 0,0 l/m 0 min 0 min 0,0 UV-I 0 W/m 15,4 km/h (3 Bft)
10.09.2013 20:10 12,9 C 11,1 C 90 % 1012,5 hPa 0,0 l/m 0 min 0 min 0,0 UV-I 0 W/m 18,0 km/h (3 Bft)
10.09.2013 20:12 12,9 C 11,1 C 90 % 1012,6 hPa 0,0 l/m 0 min 0 min 0,0 UV-I 0 W/m 12,9 km/h (3 Bft)
10.09.2013 20:14 12,9 C 11,1 C 90 % 1012,5 hPa 0,0 l/m 0 min 0 min 0,0 UV-I 0 W/m 10,3 km/h (2 Bft)
10.09.2013 20:16 12,9 C 11,1 C 90 % 1012,5 hPa 0,0 l/m 0 min 0 min 0,0 UV-I 0 W/m 12,9 km/h (3 Bft)
10.09.2013 20:18 12,9 C 11,1 C 90 % 1012,5 hPa 0,0 l/m 0 min 0 min 0,0 UV-I 0 W/m 7,7 km/h (2 Bft)
10.09.2013 20:20 12,9 C 11,1 C 90 % 1012,4 hPa 0,0 l/m 0 min 0 min 0,0 UV-I 0 W/m 2,6 km/h (1 Bft)
10.09.2013 20:22 12,9 C 11,1 C 90 % 1012,5 hPa 0,0 l/m 0 min 2 min 0,0 UV-I 0 W/m 20,6 km/h (4 Bft)
10.09.2013 20:24 12,9 C 11,1 C 90 % 1012,5 hPa 0,0 l/m 0 min 2 min 0,0 UV-I 0 W/m 10,3 km/h (2 Bft)
10.09.2013 20:26 12,9 C 11,1 C 90 % 1012,4 hPa 0,0 l/m 0 min 2 min 0,0 UV-I 0 W/m 12,9 km/h (3 Bft)
10.09.2013 20:28 12,9 C 11,1 C 90 % 1012,5 hPa 0,0 l/m 0 min 2 min 0,0 UV-I 0 W/m 10,3 km/h (2 Bft)
10.09.2013 20:30 12,9 C 11,1 C 90 % 1012,5 hPa 0,0 l/m 0 min 2 min 0,0 UV-I 0 W/m 12,9 km/h (3 Bft)
10.09.2013 20:32 12,9 C 11,1 C 90 % 1012,5 hPa 0,0 l/m 0 min 2 min 0,0 UV-I 0 W/m 2,6 km/h (1 Bft)
10.09.2013 20:34 12,9 C 11,1 C 91 % 1012,5 hPa 0,0 l/m 0 min 2 min 0,0 UV-I 0 W/m 10,3 km/h (2 Bft)
10.09.2013 20:36 12,8 C 11,1 C 91 % 1012,5 hPa 0,0 l/m 0 min 2 min 0,0 UV-I 0 W/m 18,0 km/h (3 Bft)
10.09.2013 20:38 12,8 C 11,1 C 91 % 1012,5 hPa 0,0 l/m 0 min 2 min 0,0 UV-I 0 W/m 18,0 km/h (3 Bft)
10.09.2013 20:40 12,8 C 11,1 C 91 % 1012,5 hPa 0,2 l/m 0 min 2 min 0,0 UV-I 0 W/m 12,9 km/h (3 Bft)
10.09.2013 20:42 12,7 C 10,6 C 91 % 1012,5 hPa 0,0 l/m 0 min 2 min 0,0 UV-I 0 W/m 5,1 km/h (1 Bft)
10.09.2013 20:44 12,7 C 10,6 C 92 % 1012,4 hPa 0,0 l/m 0 min 2 min 0,0 UV-I 0 W/m 18,0 km/h (3 Bft)
10.09.2013 20:46 12,6 C 10,6 C 92 % 1012,5 hPa 0,0 l/m 0 min 2 min 0,0 UV-I 0 W/m 10,3 km/h (2 Bft)
10.09.2013 20:48 12,6 C 10,6 C 92 % 1012,5 hPa 0,2 l/m 0 min 2 min 0,0 UV-I 0 W/m 12,9 km/h (3 Bft)
10.09.2013 20:50 12,6 C 10,6 C 92 % 1012,4 hPa 0,0 l/m 0 min 2 min 0,0 UV-I 0 W/m 10,3 km/h (2 Bft)
10.09.2013 20:52 12,5 C 10,6 C 93 % 1012,4 hPa 0,0 l/m 0 min 2 min 0,0 UV-I 0 W/m 12,9 km/h (3 Bft)
10.09.2013 20:54 12,4 C 10,6 C 93 % 1012,4 hPa 0,2 l/m 0 min 2 min 0,0 UV-I 0 W/m 18,0 km/h (3 Bft)
10.09.2013 20:56 12,4 C 10,6 C 93 % 1012,3 hPa 0,0 l/m 0 min 2 min 0,0 UV-I 0 W/m 7,7 km/h (2 Bft)
10.09.2013 20:58 12,4 C 10,6 C 93 % 1012,3 hPa 0,2 l/m 0 min 2 min 0,0 UV-I 0 W/m 12,9 km/h (3 Bft)
10.09.2013 21:00 12,3 C 10,6 C 93 % 1012,4 hPa 0,0 l/m 0 min 2 min 0,0 UV-I 0 W/m 10,3 km/h (2 Bft)
10.09.2013 21:02 12,3 C 10,6 C 93 % 1012,3 hPa 0,2 l/m 0 min 2 min 0,0 UV-I 0 W/m 15,4 km/h (3 Bft)
10.09.2013 21:06 12,2 C 10,6 C 94 % 1012,1 hPa 0,4 l/m 0 min 2 min 0,0 UV-I 0 W/m 15,4 km/h (3 Bft)
10.09.2013 21:08 12,2 C 10,6 C 94 % 1012,3 hPa 0,2 l/m 0 min 2 min 0,0 UV-I 0 W/m 10,3 km/h (2 Bft)
10.09.2013 21:10 12,2 C 10,6 C 94 % 1012,3 hPa 0,0 l/m 0 min 2 min 0,0 UV-I 0 W/m 18,0 km/h (3 Bft)
10.09.2013 21:12 12,1 C 10,6 C 94 % 1012,3 hPa 0,2 l/m 0 min 2 min 0,0 UV-I 0 W/m 20,6 km/h (4 Bft)
10.09.2013 21:14 12,1 C 10,6 C 94 % 1012,1 hPa 0,2 l/m 0 min 2 min 0,0 UV-I 0 W/m 15,4 km/h (3 Bft)
10.09.2013 21:16 12,1 C 10,6 C 94 % 1012,0 hPa 0,0 l/m 0 min 2 min 0,0 UV-I 0 W/m 12,9 km/h (3 Bft)
10.09.2013 21:18 12,0 C 10,6 C 95 % 1012,0 hPa 0,2 l/m 0 min 2 min 0,0 UV-I 0 W/m 18,0 km/h (3 Bft)
10.09.2013 21:20 11,9 C 10,6 C 95 % 1011,9 hPa 0,0 l/m 0 min 2 min 0,0 UV-I 0 W/m 7,7 km/h (2 Bft)
10.09.2013 21:22 11,9 C 10,6 C 95 % 1012,0 hPa 0,2 l/m 0 min 2 min 0,0 UV-I 0 W/m 18,0 km/h (3 Bft)
10.09.2013 21:24 11,9 C 10,6 C 95 % 1012,0 hPa 0,0 l/m 0 min 2 min 0,0 UV-I 0 W/m 12,9 km/h (3 Bft)
10.09.2013 21:26 11,9 C 10,6 C 95 % 1011,9 hPa 0,0 l/m 0 min 2 min 0,0 UV-I 0 W/m 10,3 km/h (2 Bft)
10.09.2013 21:28 11,8 C 10,6 C 95 % 1011,9 hPa 0,0 l/m 0 min 2 min 0,0 UV-I 0 W/m 7,7 km/h (2 Bft)
10.09.2013 21:30 11,8 C 10,6 C 95 % 1012,0 hPa 0,2 l/m 0 min 2 min 0,0 UV-I 0 W/m 10,3 km/h (2 Bft)
10.09.2013 21:32 11,8 C 10,6 C 95 % 1012,0 hPa 0,0 l/m 0 min 2 min 0,0 UV-I 0 W/m 15,4 km/h (3 Bft)
10.09.2013 21:34 11,8 C 10,6 C 95 % 1012,0 hPa 0,2 l/m 0 min 2 min 0,0 UV-I 0 W/m 15,4 km/h (3 Bft)
10.09.2013 21:36 11,7 C 10,6 C 95 % 1012,0 hPa 0,0 l/m 0 min 2 min 0,0 UV-I 0 W/m 12,9 km/h (3 Bft)
10.09.2013 21:38 11,7 C 10,6 C 95 % 1011,8 hPa 0,0 l/m 0 min 2 min 0,0 UV-I 0 W/m 10,3 km/h (2 Bft)
10.09.2013 21:40 11,7 C 10,0 C 95 % 1011,8 hPa 0,2 l/m 0 min 2 min 0,0 UV-I 0 W/m 15,4 km/h (3 Bft)
10.09.2013 21:42 11,7 C 10,6 C 95 % 1011,8 hPa 0,0 l/m 0 min 2 min 0,0 UV-I 0 W/m 10,3 km/h (2 Bft)
10.09.2013 21:44 11,6 C 10,0 C 96 % 1011,8 hPa 0,2 l/m 0 min 2 min 0,0 UV-I 0 W/m 25,7 km/h (4 Bft)
10.09.2013 21:46 11,6 C 10,0 C 96 % 1011,6 hPa 0,2 l/m 0 min 2 min 0,0 UV-I 0 W/m 20,6 km/h (4 Bft)
10.09.2013 21:48 11,6 C 10,0 C 95 % 1011,6 hPa 0,2 l/m 0 min 2 min 0,0 UV-I 0 W/m 10,3 km/h (2 Bft)
10.09.2013 21:50 11,6 C 10,0 C 95 % 1011,5 hPa 0,0 l/m 0 min 2 min 0,0 UV-I 0 W/m 10,3 km/h (2 Bft)
10.09.2013 21:52 11,6 C 10,0 C 95 % 1011,5 hPa 0,2 l/m 0 min 2 min 0,0 UV-I 0 W/m 10,3 km/h (2 Bft)
10.09.2013 21:54 11,5 C 10,0 C 96 % 1011,4 hPa 0,2 l/m 0 min 2 min 0,0 UV-I 0 W/m 12,9 km/h (3 Bft)
10.09.2013 21:56 11,5 C 10,0 C 96 % 1011,4 hPa 0,0 l/m 0 min 2 min 0,0 UV-I 0 W/m 12,9 km/h (3 Bft)
10.09.2013 21:58 11,5 C 10,0 C 96 % 1011,4 hPa 0,2 l/m 0 min 2 min 0,0 UV-I 0 W/m 25,7 km/h (4 Bft)
10.09.2013 22:00 11,5 C 10,0 C 96 % 1011,2 hPa 0,2 l/m 0 min 2 min 0,0 UV-I 0 W/m 15,4 km/h (3 Bft)
10.09.2013 22:02 11,5 C 10,0 C 96 % 1011,3 hPa 0,2 l/m 0 min 2 min 0,0 UV-I 0 W/m 20,6 km/h (4 Bft)
10.09.2013 22:06 11,4 C 10,0 C 96 % 1011,1 hPa 0,2 l/m 0 min 2 min 0,0 UV-I 0 W/m 30,9 km/h (5 Bft)
10.09.2013 22:08 11,4 C 10,0 C 96 % 1011,0 hPa 0,0 l/m 0 min 2 min 0,0 UV-I 0 W/m 20,6 km/h (4 Bft)
10.09.2013 22:10 11,4 C 10,0 C 96 % 1011,0 hPa 0,0 l/m 0 min 2 min 0,0 UV-I 0 W/m 25,7 km/h (4 Bft)
10.09.2013 22:12 11,4 C 10,0 C 96 % 1011,1 hPa 0,2 l/m 0 min 2 min 0,0 UV-I 0 W/m 18,0 km/h (3 Bft)
10.09.2013 22:14 11,4 C 10,0 C 96 % 1010,8 hPa 0,2 l/m 0 min 2 min 0,0 UV-I 0 W/m 33,5 km/h (5 Bft)
10.09.2013 22:16 11,4 C 10,0 C 96 % 1011,0 hPa 0,0 l/m 0 min 2 min 0,0 UV-I 0 W/m 20,6 km/h (4 Bft)
10.09.2013 22:18 11,4 C 10,0 C 96 % 1010,7 hPa 0,0 l/m 0 min 2 min 0,0 UV-I 0 W/m 23,2 km/h (4 Bft)
10.09.2013 22:20 11,4 C 10,0 C 96 % 1010,8 hPa 0,2 l/m 0 min 2 min 0,0 UV-I 0 W/m 33,5 km/h (5 Bft)
10.09.2013 22:22 11,4 C 10,0 C 96 % 1010,7 hPa 0,0 l/m 0 min 2 min 0,0 UV-I 0 W/m 20,6 km/h (4 Bft)
10.09.2013 22:24 11,4 C 10,0 C 96 % 1010,8 hPa 0,2 l/m 0 min 2 min 0,0 UV-I 0 W/m 46,3 km/h (6 Bft)
10.09.2013 22:26 11,4 C 10,0 C 96 % 1010,8 hPa 0,2 l/m 0 min 2 min 0,0 UV-I 0 W/m 23,2 km/h (4 Bft)
10.09.2013 22:28 11,4 C 10,0 C 96 % 1010,8 hPa 0,2 l/m 0 min 2 min 0,0 UV-I 0 W/m 10,3 km/h (2 Bft)
10.09.2013 22:30 11,4 C 10,0 C 96 % 1010,8 hPa 0,2 l/m 0 min 2 min 0,0 UV-I 0 W/m 18,0 km/h (3 Bft)
10.09.2013 22:32 11,4 C 10,0 C 96 % 1010,7 hPa 0,2 l/m 0 min 2 min 0,0 UV-I 0 W/m 25,7 km/h (4 Bft)
10.09.2013 22:34 11,3 C 10,0 C 96 % 1010,8 hPa 0,0 l/m 0 min 2 min 0,0 UV-I 0 W/m 10,3 km/h (2 Bft)
10.09.2013 22:36 11,3 C 10,0 C 96 % 1010,7 hPa 0,2 l/m 0 min 2 min 0,0 UV-I 0 W/m 23,2 km/h (4 Bft)
10.09.2013 22:38 11,3 C 10,0 C 96 % 1010,6 hPa 0,0 l/m 0 min 2 min 0,0 UV-I 0 W/m 36,0 km/h (5 Bft)
10.09.2013 22:40 11,3 C 10,0 C 96 % 1010,8 hPa 0,0 l/m 0 min 2 min 0,0 UV-I 0 W/m 28,3 km/h (4 Bft)
10.09.2013 22:42 11,3 C 10,0 C 96 % 1010,7 hPa 0,2 l/m 0 min 2 min 0,0 UV-I 0 W/m 10,3 km/h (2 Bft)
10.09.2013 22:44 11,3 C 10,0 C 96 % 1010,8 hPa 0,0 l/m 0 min 2 min 0,0 UV-I 0 W/m 23,2 km/h (4 Bft)
10.09.2013 22:46 11,3 C 10,0 C 96 % 1010,5 hPa 0,0 l/m 0 min 2 min 0,0 UV-I 0 W/m 23,2 km/h (4 Bft)
10.09.2013 22:48 11,3 C 10,0 C 96 % 1010,5 hPa 0,0 l/m 0 min 2 min 0,0 UV-I 0 W/m 25,7 km/h (4 Bft)
10.09.2013 22:50 11,3 C 10,0 C 96 % 1010,6 hPa 0,2 l/m 0 min 2 min 0,0 UV-I 0 W/m 28,3 km/h (4 Bft)
10.09.2013 22:52 11,3 C 10,0 C 96 % 1010,5 hPa 0,0 l/m 0 min 2 min 0,0 UV-I 0 W/m 23,2 km/h (4 Bft)
10.09.2013 22:54 11,3 C 10,0 C 96 % 1010,3 hPa 0,2 l/m 0 min 2 min 0,0 UV-I 0 W/m 28,3 km/h (4 Bft)
10.09.2013 22:56 11,3 C 10,0 C 96 % 1010,4 hPa 0,0 l/m 0 min 2 min 0,0 UV-I 0 W/m 20,6 km/h (4 Bft)
10.09.2013 22:58 11,3 C 10,0 C 96 % 1010,2 hPa 0,2 l/m 0 min 2 min 0,0 UV-I 0 W/m 30,9 km/h (5 Bft)
10.09.2013 23:00 11,3 C 10,0 C 96 % 1010,3 hPa 0,0 l/m 0 min 2 min 0,0 UV-I 0 W/m 18,0 km/h (3 Bft)
10.09.2013 23:02 11,3 C 10,0 C 97 % 1010,3 hPa 0,2 l/m 0 min 2 min 0,0 UV-I 0 W/m 23,2 km/h (4 Bft)
10.09.2013 23:06 11,3 C 10,0 C 97 % 1010,2 hPa 0,0 l/m 0 min 2 min 0,0 UV-I 0 W/m 30,9 km/h (5 Bft)
10.09.2013 23:08 11,3 C 10,0 C 97 % 1010,3 hPa 0,2 l/m 0 min 2 min 0,0 UV-I 0 W/m 28,3 km/h (4 Bft)
10.09.2013 23:10 11,3 C 10,0 C 97 % 1010,4 hPa 0,0 l/m 0 min 2 min 0,0 UV-I 0 W/m 20,6 km/h (4 Bft)
10.09.2013 23:12 11,3 C 10,0 C 97 % 1010,3 hPa 0,0 l/m 0 min 2 min 0,0 UV-I 0 W/m 18,0 km/h (3 Bft)
10.09.2013 23:14 11,3 C 10,0 C 97 % 1010,4 hPa 0,2 l/m 0 min 2 min 0,0 UV-I 0 W/m 43,8 km/h (6 Bft)
10.09.2013 23:16 11,3 C 10,0 C 97 % 1010,4 hPa 0,0 l/m 0 min 2 min 0,0 UV-I 0 W/m 20,6 km/h (4 Bft)
10.09.2013 23:18 11,3 C 10,0 C 97 % 1010,0 hPa 0,0 l/m 0 min 2 min 0,0 UV-I 0 W/m 18,0 km/h (3 Bft)
10.09.2013 23:20 11,3 C 10,0 C 97 % 1010,7 hPa 0,2 l/m 0 min 2 min 0,0 UV-I 0 W/m 30,9 km/h (5 Bft)
10.09.2013 23:22 11,3 C 10,0 C 97 % 1010,3 hPa 0,0 l/m 0 min 2 min 0,0 UV-I 0 W/m 28,3 km/h (4 Bft)
10.09.2013 23:24 11,3 C 10,0 C 97 % 1010,3 hPa 0,2 l/m 0 min 2 min 0,0 UV-I 0 W/m 18,0 km/h (3 Bft)
10.09.2013 23:26 11,4 C 10,0 C 97 % 1010,2 hPa 0,0 l/m 0 min 2 min 0,0 UV-I 0 W/m 15,4 km/h (3 Bft)
10.09.2013 23:28 11,4 C 10,0 C 97 % 1010,2 hPa 0,0 l/m 0 min 2 min 0,0 UV-I 0 W/m 15,4 km/h (3 Bft)
10.09.2013 23:30 11,4 C 10,0 C 97 % 1010,3 hPa 0,2 l/m 0 min 2 min 0,0 UV-I 0 W/m 18,0 km/h (3 Bft)
10.09.2013 23:32 11,4 C 10,0 C 97 % 1010,2 hPa 0,0 l/m 0 min 2 min 0,0 UV-I 0 W/m 20,6 km/h (4 Bft)
10.09.2013 23:34 11,4 C 10,0 C 97 % 1010,2 hPa 0,0 l/m 0 min 2 min 0,0 UV-I 0 W/m 18,0 km/h (3 Bft)
10.09.2013 23:36 11,4 C 10,0 C 97 % 1010,2 hPa 0,0 l/m 0 min 2 min 0,0 UV-I 0 W/m 18,0 km/h (3 Bft)
10.09.2013 23:38 11,4 C 10,0 C 97 % 1010,1 hPa 0,2 l/m 0 min 2 min 0,0 UV-I 0 W/m 15,4 km/h (3 Bft)
10.09.2013 23:40 11,4 C 10,0 C 97 % 1010,1 hPa 0,0 l/m 0 min 2 min 0,0 UV-I 0 W/m 12,9 km/h (3 Bft)
10.09.2013 23:42 11,4 C 10,0 C 97 % 1010,1 hPa 0,0 l/m 0 min 2 min 0,0 UV-I 0 W/m 15,4 km/h (3 Bft)
10.09.2013 23:44 11,4 C 10,0 C 97 % 1010,1 hPa 0,0 l/m 0 min 2 min 0,0 UV-I 0 W/m 15,4 km/h (3 Bft)
10.09.2013 23:46 11,4 C 10,0 C 97 % 1010,1 hPa 0,2 l/m 0 min 2 min 0,0 UV-I 0 W/m 10,3 km/h (2 Bft)
10.09.2013 23:48 11,4 C 10,0 C 97 % 1010,0 hPa 0,0 l/m 0 min 2 min 0,0 UV-I 0 W/m 18,0 km/h (3 Bft)
10.09.2013 23:50 11,4 C 10,0 C 97 % 1010,0 hPa 0,0 l/m 0 min 2 min 0,0 UV-I 0 W/m 25,7 km/h (4 Bft)
10.09.2013 23:52 11,4 C 10,0 C 97 % 1010,0 hPa 0,0 l/m 0 min 2 min 0,0 UV-I 0 W/m 18,0 km/h (3 Bft)
10.09.2013 23:54 11,4 C 10,0 C 97 % 1010,0 hPa 0,0 l/m 0 min 2 min 0,0 UV-I 0 W/m 25,7 km/h (4 Bft)
10.09.2013 23:56 11,4 C 10,0 C 97 % 1010,0 hPa 0,0 l/m 0 min 2 min 0,0 UV-I 0 W/m 20,6 km/h (4 Bft)
10.09.2013 23:58 11,5 C 10,0 C 97 % 1009,9 hPa 0,2 l/m 0 min 2 min 0,0 UV-I 0 W/m 12,9 km/h (3 Bft)
_ Min-Zeit 04:58 04:30 17:52 01:30 - - - - - 00:12
Minimum _ 9,9 C 8,9 C 78 % 1008,6 hPa - - - - - 0,0 km/h (0 Bft)
_ Max-Zeit 17:20 17:12 00:00 11:52 00:12 09:38 00:00 15:06 17:00 22:24
Maximum _ 16,2 C 15,0 C 98 % 1013,3 hPa 0,4 l/m 2 min 2 min 1,6 UV-I 436 W/m 46,3 km/h
W (6 Bft)
Durchschnitt _ 12,4 C 11,3 C 93 % 1011,9 hPa #12,8 l/m #1:06 h #7:30 h 0,7 UV-I 155 W/m 11,0 km/h (2 Bft)
© 2013 W. Hausmann